| time (UTC) | temp C | wind direction | speed KPH | gust KPH | rain 1hr cm | rain 24hr cm | rain mn cm | humidity % | barometer mb |
| 20260510174307 | 15 | 251 | 0.0 | 14.5 | 0.00 | 0.03 | 0.03 | 48 | 1020.2 |
| 20260510174104 | 15 | 199 | 0.0 | 9.7 | 0.00 | 0.03 | 0.03 | 43 | 1020.2 |
| 20260510174007 | 15 | 245 | 0.0 | 9.7 | 0.00 | 0.03 | 0.03 | 46 | 1020.3 |
| 20260510173809 | 15 | 66 | 0.0 | 9.7 | 0.00 | 0.03 | 0.03 | 53 | 1020.2 |
| 20260510173604 | 15 | 223 | 0.0 | 9.7 | 0.00 | 0.03 | 0.03 | 48 | 1020.1 |
| 20260510173408 | 14 | 135 | 0.0 | 9.7 | 0.00 | 0.03 | 0.03 | 48 | 1020.1 |
| 20260510173206 | 14 | 226 | 0.0 | 9.7 | 0.00 | 0.03 | 0.03 | 48 | 1020.2 |
| 20260510173103 | 14 | 265 | 0.0 | 8.0 | 0.00 | 0.03 | 0.03 | 47 | 1020.2 |
| 20260510173005 | 14 | 18 | 0.0 | 6.4 | 0.00 | 0.03 | 0.03 | 45 | 1020.1 |
| 20260510172907 | 15 | 223 | 0.0 | 6.4 | 0.00 | 0.03 | 0.03 | 47 | 1020.2 |
| 20260510172847 | 14 | 0 | 0.0 | 6.4 | 0.00 | 0.03 | 0.03 | 49 | 1020.1 |
| 20260510172817 | 15 | 223 | 0.0 | 6.4 | 0.00 | 0.03 | 0.03 | 47 | 1020.2 |
| 20260510172404 | 14 | 217 | 0.0 | 6.4 | 0.00 | 0.03 | 0.03 | 51 | 1020.1 |
| 20260510172306 | 15 | 251 | 0.0 | 8.0 | 0.00 | 0.03 | 0.03 | 47 | 1020.1 |
| 20260510172103 | 15 | 251 | 0.0 | 8.0 | 0.00 | 0.03 | 0.03 | 47 | 1020.0 |
| 20260510171956 | 15 | 251 | 0.0 | 8.0 | 0.00 | 0.03 | 0.03 | 47 | 1020.1 |
| 20260510171856 | 14 | 68 | 0.0 | 8.0 | 0.00 | 0.03 | 0.03 | 49 | 1020.1 |
| 20260510171837 | 14 | 161 | 0.0 | 8.0 | 0.00 | 0.03 | 0.03 | 50 | 1020.1 |
| 20260510171806 | 14 | 68 | 0.0 | 8.0 | 0.00 | 0.03 | 0.03 | 49 | 1020.1 |
| 20260510171355 | 14 | 212 | 0.0 | 8.0 | 0.00 | 0.03 | 0.03 | 46 | 1020.1 |
| 20260510171154 | 14 | 210 | 0.0 | 8.0 | 0.00 | 0.03 | 0.03 | 50 | 1020.1 |
| 20260510171052 | 14 | 210 | 0.0 | 8.0 | 0.00 | 0.03 | 0.03 | 50 | 1020.0 |
| 20260510170955 | 14 | 210 | 0.0 | 8.0 | 0.00 | 0.03 | 0.03 | 50 | 1020.0 |
| 20260510170847 | 14 | 0 | 0.0 | 11.3 | 0.00 | 0.03 | 0.03 | 52 | 1020.0 |
| 20260510170826 | 14 | 0 | 0.0 | 11.3 | 0.00 | 0.03 | 0.03 | 52 | 1020.2 |
| 20260510170814 | 14 | 94 | 0.0 | 8.0 | 0.00 | 0.03 | 0.03 | 54 | 1020.0 |
| 20260510170353 | 14 | 0 | 0.0 | 11.3 | 0.00 | 0.03 | 0.03 | 52 | 1020.0 |
| 20260510170153 | 14 | 0 | 0.0 | 11.3 | 0.00 | 0.03 | 0.03 | 52 | 1020.1 |
| 20260510170008 | 13 | 16 | 0.0 | 11.3 | 0.00 | 0.03 | 0.03 | 49 | 1020.1 |
| 20260510165954 | 13 | 94 | 0.0 | 11.3 | 0.00 | 0.03 | 0.03 | 52 | 1020.1 |
| 20260510165753 | 13 | 262 | 0.0 | 11.3 | 0.00 | 0.03 | 0.03 | 50 | 1020.2 |
| 20260510165554 | 14 | 274 | 0.0 | 11.3 | 0.00 | 0.03 | 0.03 | 50 | 1020.2 |
| 20260510165508 | 14 | 243 | 0.0 | 11.3 | 0.00 | 0.03 | 0.03 | 50 | 1020.2 |
| 20260510165353 | 14 | 258 | 0.0 | 9.7 | 0.00 | 0.03 | 0.03 | 50 | 1020.3 |
| 20260510165151 | 15 | 240 | 0.0 | 11.3 | 0.00 | 0.03 | 0.03 | 53 | 1020.2 |
| 20260510165005 | 14 | 240 | 0.0 | 11.3 | 0.00 | 0.03 | 0.03 | 55 | 1020.2 |
| 20260510164954 | 13 | 240 | 0.0 | 11.3 | 0.00 | 0.03 | 0.03 | 55 | 1020.2 |
| 20260510164755 | 13 | 238 | 0.0 | 11.3 | 0.00 | 0.03 | 0.03 | 50 | 1020.3 |
| 20260510164556 | 14 | 281 | 0.0 | 11.3 | 0.00 | 0.03 | 0.03 | 50 | 1020.2 |
| 20260510164511 | 14 | 27 | 0.0 | 11.3 | 0.00 | 0.03 | 0.03 | 50 | 1020.2 |
| 20260510164355 | 14 | 20 | 0.0 | 11.3 | 0.00 | 0.03 | 0.03 | 51 | 1020.2 |
| 20260510164157 | 14 | 228 | 0.0 | 9.7 | 0.00 | 0.03 | 0.03 | 47 | 1020.1 |
| 20260510164003 | 13 | 247 | 0.0 | 9.7 | 0.00 | 0.03 | 0.03 | 50 | 1020.2 |
| 20260510163949 | 13 | 247 | 0.0 | 9.7 | 0.00 | 0.03 | 0.03 | 50 | 1020.2 |
| 20260510163847 | 13 | 276 | 0.0 | 9.7 | 0.00 | 0.03 | 0.03 | 51 | 1020.3 |
| 20260510163548 | 13 | 62 | 0.0 | 9.7 | 0.00 | 0.03 | 0.03 | 52 | 1020.2 |
| 20260510163502 | 13 | 121 | 0.0 | 9.7 | 0.00 | 0.03 | 0.03 | 50 | 1020.2 |
| 20260510163347 | 13 | 288 | 0.0 | 9.7 | 0.00 | 0.03 | 0.03 | 47 | 1020.3 |
| 20260510163149 | 13 | 235 | 0.0 | 9.7 | 0.00 | 0.03 | 0.03 | 48 | 1020.1 |
| 20260510163001 | 13 | 221 | 0.0 | 6.4 | 0.00 | 0.03 | 0.03 | 48 | 1020.1 |
| 20260510162947 | 13 | 149 | 0.0 | 6.4 | 0.00 | 0.03 | 0.03 | 48 | 1020.2 |
| 20260510162747 | 13 | 78 | 0.0 | 6.4 | 0.00 | 0.03 | 0.03 | 47 | 1020.1 |
| 20260510162546 | 14 | 54 | 0.0 | 6.4 | 0.00 | 0.03 | 0.03 | 47 | 1020.1 |
| 20260510162459 | 14 | 111 | 0.0 | 6.4 | 0.00 | 0.03 | 0.03 | 47 | 1020.1 |
| 20260510162348 | 14 | 296 | 0.0 | 6.4 | 0.00 | 0.03 | 0.03 | 52 | 1020.1 |
| 20260510162246 | 13 | 348 | 0.0 | 6.4 | 0.00 | 0.03 | 0.03 | 51 | 1020.1 |
| 20260510161959 | 13 | 351 | 0.0 | 6.4 | 0.00 | 0.03 | 0.03 | 48 | 1020.0 |
| 20260510161947 | 13 | 351 | 0.0 | 6.4 | 0.00 | 0.03 | 0.03 | 48 | 1020.1 |
| 20260510161744 | 13 | 55 | 0.0 | 6.4 | 0.00 | 0.03 | 0.03 | 49 | 1020.1 |
| 20260510161544 | 13 | 257 | 0.0 | 6.4 | 0.00 | 0.03 | 0.03 | 51 | 1020.1 |
| 20260510161457 | 13 | 158 | 0.0 | 6.4 | 0.00 | 0.03 | 0.03 | 48 | 1020.1 |
| 20260510161345 | 13 | 127 | 0.0 | 6.4 | 0.00 | 0.03 | 0.03 | 50 | 1020.1 |
| 20260510161256 | 13 | 8 | 0.0 | 8.0 | 0.00 | 0.03 | 0.03 | 55 | 1020.1 |
| 20260510161237 | 13 | 56 | 0.0 | 8.0 | 0.00 | 0.03 | 0.03 | 51 | 1020.1 |
| 20260510160942 | 13 | 20 | 0.0 | 8.0 | 0.00 | 0.03 | 0.03 | 55 | 1020.1 |
| 20260510160803 | 13 | 289 | 0.0 | 8.0 | 0.00 | 0.03 | 0.03 | 50 | 1020.0 |
| 20260510160753 | 13 | 221 | 0.0 | 8.0 | 0.00 | 0.03 | 0.03 | 51 | 1020.0 |
| 20260510160724 | 13 | 252 | 0.0 | 8.0 | 0.00 | 0.03 | 0.03 | 54 | 1020.0 |
| 20260510160439 | 13 | 213 | 0.0 | 8.0 | 0.00 | 0.03 | 0.03 | 49 | 1019.9 |
| 20260510160138 | 13 | 285 | 0.0 | 8.0 | 0.00 | 0.03 | 0.03 | 54 | 1019.9 |
| 20260510155955 | 13 | 39 | 0.0 | 8.0 | 0.00 | 0.03 | 0.03 | 50 | 1019.9 |
| 20260510155935 | 13 | 39 | 0.0 | 8.0 | 0.00 | 0.03 | 0.03 | 50 | 1020.0 |
| 20260510155755 | 12 | 258 | 0.0 | 6.4 | 0.00 | 0.03 | 0.03 | 51 | 1019.9 |
| 20260510155747 | 13 | 39 | 0.0 | 8.0 | 0.00 | 0.03 | 0.03 | 56 | 1019.9 |
| 20260510155720 | 12 | 258 | 0.0 | 6.4 | 0.00 | 0.03 | 0.03 | 50 | 1019.9 |
| 20260510155333 | 12 | 269 | 0.0 | 4.8 | 0.00 | 0.03 | 0.03 | 54 | 1019.8 |
| 20260510155130 | 12 | 269 | 0.0 | 4.8 | 0.00 | 0.03 | 0.03 | 51 | 1019.9 |
| 20260510154952 | 12 | 282 | 0.0 | 6.4 | 0.00 | 0.03 | 0.03 | 53 | 1019.9 |
| 20260510154932 | 12 | 259 | 0.0 | 6.4 | 0.00 | 0.03 | 0.03 | 53 | 1019.8 |
| 20260510154833 | 12 | 259 | 0.0 | 8.0 | 0.00 | 0.03 | 0.03 | 50 | 1019.9 |
| 20260510154744 | 13 | 51 | 0.0 | 8.0 | 0.00 | 0.03 | 0.03 | 50 | 1019.9 |
| 20260510154714 | 12 | 51 | 0.0 | 8.0 | 0.00 | 0.03 | 0.03 | 50 | 1019.9 |
| 20260510154309 | 13 | 34 | 0.0 | 8.0 | 0.00 | 0.03 | 0.03 | 50 | 1020.0 |
| 20260510154109 | 13 | 34 | 0.0 | 8.0 | 0.00 | 0.03 | 0.03 | 51 | 1020.0 |
| 20260510153954 | 13 | 147 | 0.0 | 8.0 | 0.00 | 0.03 | 0.03 | 51 | 1020.0 |
| 20260510153908 | 13 | 302 | 0.0 | 8.0 | 0.00 | 0.03 | 0.03 | 54 | 1020.0 |
| 20260510153708 | 12 | 220 | 0.0 | 6.4 | 0.00 | 0.03 | 0.03 | 55 | 1019.9 |
| 20260510153507 | 12 | 220 | 0.0 | 6.4 | 0.00 | 0.03 | 0.03 | 53 | 1019.9 |
| 20260510153454 | 12 | 220 | 0.0 | 6.4 | 0.00 | 0.03 | 0.03 | 53 | 1019.9 |
| 20260510153308 | 12 | 234 | 0.0 | 6.4 | 0.00 | 0.03 | 0.03 | 56 | 1019.8 |
| 20260510153107 | 12 | 243 | 0.0 | 8.0 | 0.00 | 0.03 | 0.03 | 52 | 1019.9 |
| 20260510153007 | 12 | 274 | 0.0 | 8.0 | 0.00 | 0.03 | 0.03 | 55 | 1019.9 |
| 20260510152953 | 12 | 274 | 0.0 | 8.0 | 0.00 | 0.03 | 0.03 | 53 | 1019.9 |
| 20260510152705 | 12 | 13 | 0.0 | 8.0 | 0.00 | 0.03 | 0.03 | 54 | 1019.9 |
| 20260510152504 | 12 | 179 | 0.0 | 9.7 | 0.00 | 0.03 | 0.03 | 53 | 1019.8 |
| 20260510152450 | 12 | 179 | 0.0 | 9.7 | 0.00 | 0.03 | 0.03 | 53 | 1019.8 |
| 20260510152307 | 12 | 49 | 0.0 | 9.7 | 0.00 | 0.03 | 0.03 | 51 | 1019.8 |
| 20260510152106 | 12 | 24 | 0.0 | 9.7 | 0.00 | 0.03 | 0.03 | 53 | 1019.8 |
| 20260510151951 | 12 | 38 | 0.0 | 9.7 | 0.00 | 0.03 | 0.03 | 53 | 1019.8 |
| 20260510151905 | 12 | 99 | 0.0 | 9.7 | 0.00 | 0.03 | 0.03 | 52 | 1019.8 |
| 20260510151702 | 12 | 99 | 0.0 | 9.7 | 0.00 | 0.03 | 0.03 | 52 | 1019.8 |
| 20260510151504 | 12 | 38 | 0.0 | 6.4 | 0.00 | 0.03 | 0.03 | 53 | 1019.8 |
| 20260510151451 | 12 | 82 | 0.0 | 6.4 | 0.00 | 0.03 | 0.03 | 51 | 1019.8 |
| 20260510151402 | 12 | 66 | 0.0 | 6.4 | 0.00 | 0.03 | 0.03 | 51 | 1019.7 |
| 20260510151100 | 12 | 39 | 0.0 | 6.4 | 0.00 | 0.03 | 0.03 | 53 | 1019.8 |
| 20260510150951 | 12 | 252 | 0.0 | 6.4 | 0.00 | 0.03 | 0.03 | 53 | 1019.8 |
| 20260510150859 | 12 | 252 | 0.0 | 6.4 | 0.00 | 0.03 | 0.03 | 54 | 1019.8 |
| 20260510150659 | 12 | 7 | 0.0 | 6.4 | 0.00 | 0.03 | 0.03 | 55 | 1019.9 |
| 20260510150503 | 12 | 41 | 0.0 | 6.4 | 0.00 | 0.03 | 0.03 | 53 | 1019.8 |
| 20260510150452 | 12 | 39 | 0.0 | 6.4 | 0.00 | 0.03 | 0.03 | 53 | 1019.8 |
| 20260510150258 | 12 | 51 | 0.0 | 6.4 | 0.00 | 0.03 | 0.03 | 52 | 1019.8 |
| 20260510150056 | 12 | 176 | 0.0 | 6.4 | 0.00 | 0.03 | 0.03 | 54 | 1019.8 |
| 20260510145951 | 12 | 176 | 0.0 | 6.4 | 0.00 | 0.03 | 0.03 | 55 | 1019.8 |
| 20260510145857 | 12 | 176 | 0.0 | 6.4 | 0.00 | 0.03 | 0.03 | 55 | 1019.9 |
| 20260510145751 | 12 | 176 | 0.0 | 6.4 | 0.00 | 0.03 | 0.03 | 56 | 1019.8 |
| 20260510145452 | 11 | 47 | 0.0 | 3.2 | 0.00 | 0.03 | 0.03 | 55 | 1019.8 |
| 20260510145301 | 11 | 47 | 0.0 | 3.2 | 0.00 | 0.03 | 0.03 | 56 | 1019.8 |
| 20260510145057 | 11 | 47 | 0.0 | 4.8 | 0.00 | 0.03 | 0.03 | 54 | 1019.7 |
| 20260510145005 | 12 | 41 | 0.0 | 11.3 | 0.00 | 0.03 | 0.03 | 55 | 1019.8 |
| 20260510144954 | 11 | 45 | 0.0 | 11.3 | 0.00 | 0.03 | 0.03 | 55 | 1019.7 |
| 20260510144758 | 12 | 17 | 0.0 | 11.3 | 0.00 | 0.03 | 0.03 | 56 | 1019.8 |
| 20260510144739 | 12 | 17 | 0.0 | 11.3 | 0.00 | 0.03 | 0.03 | 55 | 1019.8 |
| 20260510144708 | 12 | 17 | 0.0 | 11.3 | 0.00 | 0.03 | 0.03 | 56 | 1019.8 |
| 20260510144255 | 12 | 32 | 0.0 | 11.3 | 0.00 | 0.03 | 0.03 | 55 | 1019.9 |
| 20260510144055 | 11 | 38 | 0.0 | 11.3 | 0.00 | 0.03 | 0.03 | 56 | 1019.8 |
| 20260510143954 | 11 | 51 | 0.0 | 8.0 | 0.00 | 0.03 | 0.03 | 56 | 1019.8 |
| 20260510143857 | 11 | 319 | 0.0 | 8.0 | 0.00 | 0.03 | 0.03 | 56 | 1019.8 |
| 20260510143655 | 11 | 47 | 0.0 | 8.0 | 0.00 | 0.03 | 0.03 | 59 | 1019.8 |
| 20260510143456 | 11 | 47 | 0.0 | 8.0 | 0.00 | 0.03 | 0.03 | 56 | 1019.7 |
| 20260510143357 | 11 | 97 | 0.0 | 4.8 | 0.00 | 0.03 | 0.03 | 56 | 1019.8 |
| 20260510143257 | 11 | 66 | 0.0 | 3.2 | 0.00 | 0.03 | 0.03 | 58 | 1019.8 |
| 20260510143224 | 11 | 66 | 0.0 | 3.2 | 0.00 | 0.03 | 0.03 | 58 | 1019.8 |
| 20260510142855 | 11 | 68 | 0.0 | 4.8 | 0.00 | 0.03 | 0.03 | 58 | 1019.8 |
| 20260510142655 | 10 | 68 | 0.0 | 4.8 | 0.00 | 0.03 | 0.03 | 60 | 1019.8 |
| 20260510142458 | 10 | 69 | 0.0 | 4.8 | 0.00 | 0.03 | 0.03 | 60 | 1019.6 |
| 20260510142258 | 10 | 69 | 0.0 | 6.4 | 0.00 | 0.03 | 0.03 | 58 | 1019.7 |
| 20260510142250 | 10 | 63 | 0.0 | 9.7 | 0.00 | 0.03 | 0.03 | 56 | 1019.7 |
| 20260510142223 | 10 | 69 | 0.0 | 8.0 | 0.00 | 0.03 | 0.03 | 56 | 1019.7 |
| 20260510141856 | 11 | 45 | 0.0 | 9.7 | 0.00 | 0.03 | 0.03 | 56 | 1019.7 |
| 20260510141754 | 11 | 45 | 0.0 | 9.7 | 0.00 | 0.03 | 0.03 | 56 | 1019.7 |
| 20260510141457 | 11 | 47 | 0.0 | 9.7 | 0.00 | 0.03 | 0.03 | 57 | 1019.7 |
| 20260510141301 | 11 | 89 | 0.0 | 4.8 | 0.00 | 0.03 | 0.03 | 56 | 1019.6 |
| 20260510141256 | 11 | 61 | 0.0 | 9.7 | 0.00 | 0.03 | 0.03 | 58 | 1019.7 |
| 20260510141224 | 11 | 25 | 0.0 | 9.7 | 0.00 | 0.03 | 0.03 | 59 | 1019.6 |
| 20260510140855 | 10 | 99 | 0.0 | 4.8 | 0.00 | 0.03 | 0.03 | 59 | 1019.6 |
| 20260510140655 | 10 | 71 | 0.0 | 4.8 | 0.00 | 0.03 | 0.03 | 58 | 1019.6 |
| 20260510140600 | 10 | 78 | 0.0 | 6.4 | 0.00 | 0.03 | 0.03 | 59 | 1019.6 |
| 20260510140455 | 10 | 78 | 0.0 | 6.4 | 0.00 | 0.03 | 0.03 | 59 | 1019.6 |
| 20260510140257 | 10 | 75 | 0.0 | 6.4 | 0.00 | 0.03 | 0.03 | 57 | 1019.6 |
| 20260510140055 | 10 | 75 | 0.0 | 6.4 | 0.00 | 0.03 | 0.03 | 58 | 1019.7 |
| 20260510135954 | 10 | 75 | 0.0 | 6.4 | 0.00 | 0.03 | 0.03 | 59 | 1019.5 |
| 20260510135856 | 10 | 75 | 0.0 | 6.4 | 0.00 | 0.03 | 0.03 | 59 | 1019.6 |
| 20260510135655 | 10 | 75 | 0.0 | 6.4 | 0.00 | 0.03 | 0.03 | 59 | 1019.7 |
| 20260510135455 | 10 | 76 | 0.0 | 6.4 | 0.00 | 0.03 | 0.03 | 60 | 1019.5 |
| 20260510135255 | 10 | 80 | 0.0 | 6.4 | 0.00 | 0.03 | 0.03 | 58 | 1019.6 |
| 20260510135057 | 10 | 38 | 0.0 | 6.4 | 0.00 | 0.03 | 0.03 | 59 | 1019.5 |
| 20260510135006 | 10 | 38 | 0.0 | 6.4 | 0.00 | 0.03 | 0.03 | 58 | 1019.5 |
| 20260510134954 | 10 | 38 | 0.0 | 6.4 | 0.00 | 0.03 | 0.03 | 58 | 1019.5 |
| 20260510134655 | 10 | 75 | 0.0 | 6.4 | 0.00 | 0.03 | 0.03 | 60 | 1019.6 |
| 20260510134455 | 10 | 73 | 0.0 | 4.8 | 0.00 | 0.03 | 0.03 | 60 | 1019.5 |
| 20260510134255 | 10 | 76 | 0.0 | 8.0 | 0.00 | 0.03 | 0.03 | 60 | 1019.5 |
| 20260510134055 | 10 | 76 | 0.0 | 8.0 | 0.00 | 0.03 | 0.03 | 61 | 1019.6 |
| 20260510133954 | 10 | 76 | 0.0 | 8.0 | 0.00 | 0.03 | 0.03 | 61 | 1019.6 |
| 20260510133855 | 10 | 76 | 0.0 | 8.0 | 0.00 | 0.03 | 0.03 | 61 | 1019.5 |
| 20260510133655 | 10 | 76 | 0.0 | 8.0 | 0.00 | 0.03 | 0.03 | 61 | 1019.5 |
| 20260510133455 | 10 | 76 | 0.0 | 8.0 | 0.00 | 0.03 | 0.03 | 60 | 1019.6 |
| 20260510133355 | 10 | 63 | 0.0 | 6.4 | 0.00 | 0.03 | 0.03 | 63 | 1019.5 |
| 20260510133055 | 10 | 49 | 0.0 | 6.4 | 0.00 | 0.03 | 0.03 | 63 | 1019.4 |
| 20260510132954 | 10 | 86 | 0.0 | 6.4 | 0.00 | 0.03 | 0.03 | 63 | 1019.5 |
| 20260510132856 | 10 | 86 | 0.0 | 6.4 | 0.00 | 0.03 | 0.03 | 64 | 1019.5 |
| 20260510132753 | 10 | 87 | 0.0 | 6.4 | 0.00 | 0.03 | 0.03 | 65 | 1019.5 |
| 20260510132455 | 9 | 141 | 0.0 | 3.2 | 0.00 | 0.03 | 0.03 | 67 | 1019.5 |
| 20260510132255 | 9 | 142 | 0.0 | 1.6 | 0.00 | 0.03 | 0.03 | 65 | 1019.5 |
| 20260510132105 | 9 | 142 | 0.0 | 3.2 | 0.00 | 0.03 | 0.03 | 65 | 1019.4 |
| 20260510132100 | 9 | 142 | 0.0 | 1.6 | 0.00 | 0.03 | 0.03 | 65 | 1019.6 |
| 20260510132039 | 9 | 142 | 0.0 | 1.6 | 0.00 | 0.03 | 0.03 | 65 | 1019.5 |
| 20260510132022 | 9 | 142 | 0.0 | 1.6 | 0.00 | 0.03 | 0.03 | 64 | 1019.4 |
| 20260510131742 | 9 | 142 | 0.0 | 3.2 | 0.00 | 0.03 | 0.03 | 64 | 1019.4 |
| 20260510131708 | 9 | 142 | 0.0 | 3.2 | 0.00 | 0.03 | 0.03 | 65 | 1019.4 |
| 20260510131255 | 8 | 142 | 0.0 | 4.8 | 0.00 | 0.03 | 0.03 | 66 | 1019.4 |
| 20260510131150 | 8 | 142 | 0.0 | 4.8 | 0.00 | 0.03 | 0.03 | 66 | 1019.4 |
| 20260510130954 | 8 | 142 | 0.0 | 4.8 | 0.00 | 0.03 | 0.03 | 66 | 1019.4 |
| 20260510130855 | 8 | 142 | 0.0 | 4.8 | 0.00 | 0.03 | 0.03 | 67 | 1019.4 |
| 20260510130656 | 8 | 142 | 0.0 | 4.8 | 0.00 | 0.03 | 0.03 | 68 | 1019.4 |
| 20260510130455 | 8 | 142 | 0.0 | 4.8 | 0.00 | 0.03 | 0.03 | 69 | 1019.3 |
| 20260510130257 | 8 | 197 | 0.0 | 1.6 | 0.00 | 0.03 | 0.03 | 69 | 1019.4 |
| 20260510130055 | 8 | 196 | 0.0 | 1.6 | 0.00 | 0.03 | 0.03 | 70 | 1019.4 |
| 20260510125955 | 8 | 197 | 0.0 | 3.2 | 0.00 | 0.03 | 0.03 | 70 | 1019.4 |
| 20260510125855 | 8 | 196 | 0.0 | 3.2 | 0.00 | 0.03 | 0.03 | 70 | 1019.4 |
| 20260510125654 | 8 | 196 | 0.0 | 3.2 | 0.00 | 0.03 | 0.03 | 71 | 1019.4 |
| 20260510125601 | 7 | 196 | 0.0 | 3.2 | 0.00 | 0.03 | 0.03 | 72 | 1019.3 |
| 20260510125456 | 7 | 196 | 0.0 | 3.2 | 0.00 | 0.03 | 0.03 | 72 | 1019.3 |
| 20260510125255 | 7 | 196 | 0.0 | 3.2 | 0.00 | 0.03 | 0.03 | 73 | 1019.3 |
| 20260510125054 | 7 | 196 | 0.0 | 3.2 | 0.00 | 0.03 | 0.03 | 74 | 1019.3 |
| 20260510124954 | 7 | 197 | 0.0 | 3.2 | 0.00 | 0.03 | 0.03 | 74 | 1019.3 |
| 20260510124855 | 7 | 197 | 0.0 | 3.2 | 0.00 | 0.03 | 0.03 | 74 | 1019.3 |
| 20260510124655 | 7 | 197 | 0.0 | 3.2 | 0.00 | 0.03 | 0.03 | 74 | 1019.3 |
| 20260510124455 | 7 | 234 | 0.0 | 3.2 | 0.00 | 0.03 | 0.03 | 75 | 1019.2 |
| 20260510124355 | 6 | 234 | 0.0 | 3.2 | 0.00 | 0.03 | 0.03 | 76 | 1019.2 |
| 20260510124054 | 6 | 234 | 0.0 | 0.0 | 0.00 | 0.03 | 0.03 | 75 | 1019.2 |
| 20260510123954 | 6 | 234 | 0.0 | 0.0 | 0.00 | 0.03 | 0.03 | 76 | 1019.2 |
| 20260510123855 | 6 | 234 | 0.0 | 0.0 | 0.00 | 0.03 | 0.03 | 76 | 1019.3 |
| 20260510123759 | 6 | 234 | 0.0 | 0.0 | 0.00 | 0.03 | 0.03 | 77 | 1019.2 |
| 20260510123744 | 6 | 234 | 0.0 | 0.0 | 0.00 | 0.03 | 0.03 | 77 | 1019.2 |
| 20260510123709 | 6 | 234 | 0.0 | 0.0 | 0.00 | 0.03 | 0.03 | 77 | 1019.2 |
| 20260510123256 | 6 | 234 | 0.0 | 0.0 | 0.00 | 0.03 | 0.03 | 78 | 1019.2 |
| 20260510123247 | 6 | 234 | 0.0 | 0.0 | 0.00 | 0.03 | 0.03 | 79 | 1019.1 |
| 20260510123223 | 6 | 234 | 0.0 | 0.0 | 0.00 | 0.03 | 0.03 | 79 | 1019.1 |
| 20260510122855 | 6 | 234 | 0.0 | 0.0 | 0.00 | 0.03 | 0.03 | 79 | 1019.1 |
| 20260510122756 | 5 | 234 | 0.0 | 0.0 | 0.00 | 0.03 | 0.03 | 80 | 1019.1 |
| 20260510122457 | 5 | 234 | 0.0 | 0.0 | 0.00 | 0.03 | 0.03 | 81 | 1019.2 |
| 20260510122257 | 5 | 234 | 0.0 | 1.6 | 0.00 | 0.03 | 0.03 | 81 | 1019.1 |
| 20260510122241 | 5 | 234 | 0.0 | 1.6 | 0.00 | 0.03 | 0.03 | 81 | 1019.0 |
| 20260510122222 | 5 | 234 | 0.0 | 1.6 | 0.00 | 0.03 | 0.03 | 81 | 1019.1 |
| 20260510121857 | 5 | 234 | 0.0 | 1.6 | 0.00 | 0.03 | 0.03 | 82 | 1019.0 |
| 20260510121655 | 5 | 234 | 0.0 | 1.6 | 0.00 | 0.03 | 0.03 | 82 | 1019.0 |
| 20260510121447 | 5 | 234 | 0.0 | 1.6 | 0.00 | 0.03 | 0.03 | 82 | 1018.9 |
| 20260510121327 | 4 | 234 | 0.0 | 0.0 | 0.00 | 0.03 | 0.03 | 83 | 1018.9 |
| 20260510121255 | 4 | 234 | 0.0 | 1.6 | 0.00 | 0.03 | 0.03 | 83 | 1018.9 |
| 20260510121241 | 4 | 234 | 0.0 | 0.0 | 0.00 | 0.03 | 0.03 | 84 | 1018.8 |
| 20260510120855 | 4 | 234 | 0.0 | 0.0 | 0.00 | 0.03 | 0.03 | 84 | 1018.8 |
| 20260510120655 | 4 | 234 | 0.0 | 0.0 | 0.00 | 0.03 | 0.03 | 84 | 1018.9 |
| 20260510120447 | 4 | 234 | 0.0 | 0.0 | 0.00 | 0.03 | 0.03 | 84 | 1018.7 |
| 20260510120319 | 4 | 234 | 0.0 | 0.0 | 0.00 | 0.03 | 0.03 | 84 | 1018.7 |
| 20260510120255 | 4 | 234 | 0.0 | 0.0 | 0.00 | 0.03 | 0.03 | 84 | 1018.7 |
| 20260510120236 | 3 | 234 | 0.0 | 0.0 | 0.00 | 0.03 | 0.03 | 84 | 1018.6 |
| 20260510115855 | 3 | 234 | 0.0 | 0.0 | 0.00 | 0.03 | 0.03 | 84 | 1018.6 |
| 20260510115655 | 3 | 234 | 0.0 | 0.0 | 0.00 | 0.03 | 0.03 | 84 | 1018.6 |
| 20260510115444 | 3 | 234 | 0.0 | 0.0 | 0.00 | 0.03 | 0.03 | 84 | 1018.6 |
| 20260510115255 | 3 | 234 | 0.0 | 0.0 | 0.00 | 0.03 | 0.03 | 84 | 1018.4 |
| 20260510115238 | 3 | 234 | 0.0 | 0.0 | 0.00 | 0.03 | 0.03 | 84 | 1018.4 |
| 20260510115221 | 3 | 234 | 0.0 | 0.0 | 0.00 | 0.03 | 0.03 | 84 | 1018.4 |
| 20260510114855 | 3 | 234 | 0.0 | 0.0 | 0.00 | 0.03 | 0.03 | 84 | 1018.4 |
| 20260510114655 | 3 | 234 | 0.0 | 0.0 | 0.00 | 0.03 | 0.03 | 84 | 1018.4 |
| 20260510114559 | 3 | 234 | 0.0 | 0.0 | 0.00 | 0.03 | 0.03 | 84 | 1018.4 |
| 20260510114442 | 3 | 234 | 0.0 | 0.0 | 0.00 | 0.03 | 0.03 | 84 | 1018.3 |
| 20260510114301 | 3 | 234 | 0.0 | 0.0 | 0.00 | 0.03 | 0.03 | 84 | 1018.3 |
| 20260510114256 | 3 | 234 | 0.0 | 0.0 | 0.00 | 0.03 | 0.03 | 84 | 1018.4 |
| 20260510114229 | 3 | 234 | 0.0 | 0.0 | 0.00 | 0.03 | 0.03 | 84 | 1018.3 |
| 20260510113855 | 3 | 234 | 0.0 | 0.0 | 0.00 | 0.03 | 0.03 | 84 | 1018.3 |
| 20260510113657 | 3 | 234 | 0.0 | 0.0 | 0.00 | 0.03 | 0.03 | 84 | 1018.3 |
| 20260510113438 | 3 | 234 | 0.0 | 0.0 | 0.00 | 0.03 | 0.03 | 84 | 1018.2 |
| 20260510113251 | 3 | 234 | 0.0 | 0.0 | 0.00 | 0.03 | 0.03 | 84 | 1018.2 |
| 20260510113235 | 3 | 234 | 0.0 | 0.0 | 0.00 | 0.03 | 0.03 | 84 | 1018.1 |
| 20260510113230 | 3 | 234 | 0.0 | 0.0 | 0.00 | 0.03 | 0.03 | 84 | 1018.1 |
| 20260510113212 | 3 | 234 | 0.0 | 0.0 | 0.00 | 0.03 | 0.03 | 84 | 1018.1 |
| 20260510112649 | 3 | 234 | 0.0 | 0.0 | 0.00 | 0.03 | 0.03 | 84 | 1018.1 |
| 20260510112546 | 3 | 234 | 0.0 | 0.0 | 0.00 | 0.03 | 0.03 | 84 | 1018.1 |
| 20260510112436 | 3 | 234 | 0.0 | 0.0 | 0.00 | 0.03 | 0.03 | 84 | 1018.1 |
| 20260510112248 | 3 | 234 | 0.0 | 0.0 | 0.00 | 0.03 | 0.03 | 84 | 1018.1 |
| 20260510112047 | 3 | 234 | 0.0 | 0.0 | 0.00 | 0.03 | 0.03 | 84 | 1018.1 |
| 20260510111931 | 3 | 234 | 0.0 | 0.0 | 0.00 | 0.03 | 0.03 | 84 | 1018.0 |
| 20260510111848 | 3 | 234 | 0.0 | 0.0 | 0.00 | 0.03 | 0.03 | 84 | 1018.0 |
| 20260510111644 | 3 | 234 | 0.0 | 0.0 | 0.00 | 0.03 | 0.03 | 84 | 1018.1 |
| 20260510111430 | 3 | 234 | 0.0 | 0.0 | 0.00 | 0.03 | 0.03 | 84 | 1018.1 |
| 20260510111240 | 3 | 234 | 0.0 | 0.0 | 0.00 | 0.03 | 0.03 | 84 | 1018.0 |
| 20260510111040 | 3 | 234 | 0.0 | 0.0 | 0.00 | 0.03 | 0.03 | 84 | 1018.0 |
| 20260510110940 | 3 | 234 | 0.0 | 0.0 | 0.00 | 0.03 | 0.03 | 84 | 1018.0 |
| 20260510110929 | 3 | 234 | 0.0 | 0.0 | 0.00 | 0.03 | 0.03 | 84 | 1018.0 |
| 20260510110639 | 3 | 234 | 0.0 | 0.0 | 0.00 | 0.03 | 0.03 | 84 | 1017.9 |
| 20260510110429 | 3 | 234 | 0.0 | 0.0 | 0.00 | 0.03 | 0.03 | 84 | 1018.0 |
| 20260510110238 | 3 | 234 | 0.0 | 1.6 | 0.00 | 0.03 | 0.03 | 84 | 1017.9 |
| 20260510110038 | 3 | 234 | 0.0 | 1.6 | 0.00 | 0.03 | 0.03 | 84 | 1017.9 |
| 20260510105929 | 3 | 234 | 0.0 | 1.6 | 0.00 | 0.03 | 0.03 | 84 | 1017.9 |
| 20260510105836 | 3 | 234 | 0.0 | 1.6 | 0.00 | 0.03 | 0.03 | 83 | 1017.9 |
| 20260510105634 | 3 | 234 | 0.0 | 1.6 | 0.00 | 0.03 | 0.03 | 83 | 1017.8 |
| 20260510105430 | 3 | 234 | 0.0 | 1.6 | 0.00 | 0.03 | 0.03 | 84 | 1017.9 |
| 20260510105338 | 3 | 234 | 0.0 | 1.6 | 0.00 | 0.03 | 0.03 | 83 | 1017.7 |
| 20260510105036 | 3 | 234 | 0.0 | 1.6 | 0.00 | 0.03 | 0.03 | 84 | 1017.8 |
| 20260510104929 | 3 | 234 | 0.0 | 1.6 | 0.00 | 0.03 | 0.03 | 84 | 1017.8 |
| 20260510104836 | 2 | 234 | 0.0 | 1.6 | 0.00 | 0.03 | 0.03 | 84 | 1017.8 |
| 20260510104635 | 2 | 234 | 0.0 | 1.6 | 0.00 | 0.03 | 0.03 | 84 | 1017.8 |
| 20260510104434 | 2 | 234 | 0.0 | 1.6 | 0.00 | 0.03 | 0.03 | 84 | 1017.7 |
| 20260510104206 | 2 | 234 | 0.0 | 1.6 | 0.00 | 0.03 | 0.03 | 84 | 1017.7 |
| 20260510104006 | 2 | 234 | 0.0 | 1.6 | 0.00 | 0.03 | 0.03 | 84 | 1017.7 |
| 20260510103902 | 2 | 234 | 0.0 | 1.6 | 0.00 | 0.03 | 0.03 | 84 | 1017.7 |
| 20260510103807 | 2 | 234 | 0.0 | 1.6 | 0.00 | 0.03 | 0.03 | 84 | 1017.8 |
| 20260510103604 | 2 | 234 | 0.0 | 1.6 | 0.00 | 0.03 | 0.03 | 83 | 1017.7 |
| 20260510103403 | 2 | 234 | 0.0 | 1.6 | 0.00 | 0.03 | 0.03 | 83 | 1017.7 |
| 20260510103305 | 2 | 234 | 0.0 | 3.2 | 0.00 | 0.03 | 0.03 | 83 | 1017.6 |
| 20260510103159 | 2 | 234 | 0.0 | 3.2 | 0.00 | 0.03 | 0.03 | 83 | 1017.6 |
| 20260510103136 | 2 | 234 | 0.0 | 3.2 | 0.00 | 0.03 | 0.03 | 83 | 1017.5 |
| 20260510102807 | 2 | 234 | 0.0 | 3.2 | 0.00 | 0.03 | 0.03 | 83 | 1017.5 |
| 20260510102554 | 2 | 234 | 0.0 | 3.2 | 0.00 | 0.03 | 0.03 | 83 | 1017.6 |
| 20260510102354 | 2 | 234 | 0.0 | 3.2 | 0.00 | 0.03 | 0.03 | 83 | 1017.6 |
| 20260510102157 | 2 | 234 | 0.0 | 1.6 | 0.00 | 0.03 | 0.03 | 82 | 1017.6 |
| 20260510102151 | 2 | 234 | 0.0 | 1.6 | 0.00 | 0.03 | 0.03 | 82 | 1017.4 |
| 20260510102126 | 2 | 234 | 0.0 | 1.6 | 0.00 | 0.03 | 0.03 | 82 | 1017.5 |
| 20260510101752 | 2 | 234 | 0.0 | 1.6 | 0.00 | 0.03 | 0.03 | 82 | 1017.4 |
| 20260510101657 | 2 | 234 | 0.0 | 1.6 | 0.00 | 0.03 | 0.03 | 82 | 1017.4 |
| 20260510101356 | 2 | 234 | 0.0 | 1.6 | 0.00 | 0.03 | 0.03 | 82 | 1017.4 |
| 20260510101156 | 2 | 234 | 0.0 | 1.6 | 0.00 | 0.03 | 0.03 | 82 | 1017.3 |
| 20260510101126 | 2 | 234 | 0.0 | 1.6 | 0.00 | 0.03 | 0.03 | 82 | 1017.3 |
| 20260510101104 | 2 | 234 | 0.0 | 1.6 | 0.00 | 0.03 | 0.03 | 82 | 1017.3 |
| 20260510100733 | 2 | 234 | 0.0 | 1.6 | 0.00 | 0.03 | 0.03 | 82 | 1017.2 |
| 20260510100532 | 2 | 234 | 0.0 | 3.2 | 0.00 | 0.03 | 0.03 | 82 | 1017.2 |
| 20260510100329 | 2 | 234 | 0.0 | 3.2 | 0.00 | 0.03 | 0.03 | 82 | 1017.2 |
| 20260510100132 | 2 | 234 | 0.0 | 3.2 | 0.00 | 0.03 | 0.03 | 82 | 1017.1 |
| 20260510100126 | 2 | 234 | 0.0 | 3.2 | 0.00 | 0.03 | 0.03 | 81 | 1017.0 |
| 20260510100100 | 2 | 234 | 0.0 | 3.2 | 0.00 | 0.03 | 0.03 | 82 | 1017.0 |
| 20260510095825 | 2 | 234 | 0.0 | 3.2 | 0.00 | 0.03 | 0.03 | 81 | 1017.0 |
| 20260510095524 | 2 | 234 | 0.0 | 1.6 | 0.00 | 0.03 | 0.03 | 82 | 1016.9 |
| 20260510095320 | 2 | 234 | 0.0 | 3.2 | 0.00 | 0.03 | 0.03 | 81 | 1017.0 |
| 20260510095125 | 3 | 234 | 0.0 | 3.2 | 0.00 | 0.03 | 0.03 | 81 | 1017.0 |
| 20260510094923 | 3 | 234 | 0.0 | 3.2 | 0.00 | 0.03 | 0.03 | 82 | 1017.0 |
| 20260510094826 | 3 | 234 | 0.0 | 3.2 | 0.00 | 0.03 | 0.03 | 82 | 1017.0 |
| 20260510094723 | 3 | 234 | 0.0 | 3.2 | 0.00 | 0.03 | 0.03 | 82 | 1016.9 |
| 20260510094622 | 3 | 234 | 0.0 | 0.0 | 0.00 | 0.03 | 0.03 | 83 | 1016.9 |
| 20260510094607 | 3 | 234 | 0.0 | 3.2 | 0.00 | 0.03 | 0.03 | 83 | 1016.9 |
| 20260510094536 | 3 | 234 | 0.0 | 0.0 | 0.00 | 0.03 | 0.03 | 83 | 1016.9 |
| 20260510094214 | 2 | 234 | 0.0 | 0.0 | 0.00 | 0.03 | 0.03 | 83 | 1016.9 |
| 20260510093916 | 2 | 234 | 0.0 | 0.0 | 0.00 | 0.03 | 0.03 | 83 | 1017.0 |
| 20260510093818 | 2 | 234 | 0.0 | 0.0 | 0.00 | 0.03 | 0.03 | 83 | 1017.1 |
| 20260510093715 | 2 | 234 | 0.0 | 0.0 | 0.00 | 0.03 | 0.03 | 83 | 1017.0 |
| 20260510093610 | 3 | 234 | 0.0 | 0.0 | 0.00 | 0.03 | 0.03 | 83 | 1016.8 |
| 20260510093555 | 2 | 234 | 0.0 | 0.0 | 0.00 | 0.03 | 0.03 | 83 | 1016.9 |
| 20260510093314 | 3 | 234 | 0.0 | 0.0 | 0.00 | 0.03 | 0.03 | 83 | 1016.8 |
| 20260510093115 | 2 | 234 | 0.0 | 0.0 | 0.00 | 0.03 | 0.03 | 82 | 1016.7 |
| 20260510092914 | 2 | 234 | 0.0 | 0.0 | 0.00 | 0.03 | 0.03 | 82 | 1016.8 |
| 20260510092818 | 2 | 234 | 0.0 | 0.0 | 0.00 | 0.03 | 0.03 | 82 | 1016.7 |
| 20260510092715 | 2 | 234 | 0.0 | 0.0 | 0.00 | 0.03 | 0.03 | 82 | 1016.8 |
| 20260510092610 | 2 | 234 | 0.0 | 0.0 | 0.00 | 0.03 | 0.03 | 82 | 1016.7 |
| 20260510092555 | 2 | 234 | 0.0 | 0.0 | 0.00 | 0.03 | 0.03 | 82 | 1016.6 |
| 20260510092310 | 2 | 234 | 0.0 | 0.0 | 0.00 | 0.03 | 0.03 | 82 | 1016.7 |
| 20260510092110 | 3 | 234 | 0.0 | 0.0 | 0.00 | 0.03 | 0.03 | 82 | 1016.7 |
| 20260510091910 | 3 | 234 | 0.0 | 0.0 | 0.00 | 0.03 | 0.03 | 82 | 1016.7 |
| 20260510091815 | 3 | 234 | 0.0 | 0.0 | 0.00 | 0.03 | 0.03 | 82 | 1016.7 |
| 20260510091805 | 3 | 234 | 0.0 | 0.0 | 0.00 | 0.03 | 0.03 | 82 | 1016.7 |
| 20260510091510 | 3 | 234 | 0.0 | 0.0 | 0.00 | 0.03 | 0.03 | 82 | 1016.8 |
| 20260510091310 | 3 | 234 | 0.0 | 0.0 | 0.00 | 0.03 | 0.03 | 82 | 1016.7 |
| 20260510091108 | 3 | 234 | 0.0 | 0.0 | 0.00 | 0.03 | 0.03 | 82 | 1016.8 |
| 20260510090907 | 3 | 234 | 0.0 | 0.0 | 0.00 | 0.03 | 0.03 | 82 | 1016.7 |
| 20260510090809 | 3 | 234 | 0.0 | 0.0 | 0.00 | 0.03 | 0.03 | 82 | 1016.7 |
| 20260510090708 | 3 | 234 | 0.0 | 0.0 | 0.00 | 0.03 | 0.03 | 82 | 1016.6 |
| 20260510090603 | 3 | 234 | 0.0 | 0.0 | 0.00 | 0.03 | 0.03 | 82 | 1016.7 |
| 20260510090548 | 3 | 234 | 0.0 | 0.0 | 0.00 | 0.03 | 0.03 | 82 | 1016.6 |
| 20260510090519 | 3 | 234 | 0.0 | 0.0 | 0.00 | 0.03 | 0.03 | 82 | 1016.7 |
| 20260510090206 | 3 | 234 | 0.0 | 0.0 | 0.00 | 0.03 | 0.03 | 82 | 1016.7 |
| 20260510085908 | 3 | 234 | 0.0 | 0.0 | 0.00 | 0.03 | 0.03 | 81 | 1016.6 |
| 20260510085807 | 3 | 234 | 0.0 | 0.0 | 0.00 | 0.03 | 0.03 | 81 | 1016.5 |
| 20260510085708 | 3 | 234 | 0.0 | 0.0 | 0.00 | 0.03 | 0.03 | 81 | 1016.5 |
| 20260510085611 | 3 | 234 | 0.0 | 0.0 | 0.00 | 0.03 | 0.03 | 81 | 1016.5 |
| 20260510085554 | 3 | 234 | 0.0 | 0.0 | 0.00 | 0.03 | 0.03 | 81 | 1016.5 |
| 20260510085522 | 3 | 234 | 0.0 | 0.0 | 0.00 | 0.03 | 0.03 | 81 | 1016.5 |
| 20260510085102 | 2 | 234 | 0.0 | 0.0 | 0.00 | 0.03 | 0.03 | 80 | 1016.4 |
| 20260510084903 | 2 | 234 | 0.0 | 0.0 | 0.00 | 0.03 | 0.03 | 80 | 1016.4 |
| 20260510084801 | 2 | 234 | 0.0 | 0.0 | 0.00 | 0.03 | 0.03 | 80 | 1016.3 |
| 20260510084704 | 2 | 234 | 0.0 | 0.0 | 0.00 | 0.03 | 0.03 | 79 | 1016.4 |
| 20260510084603 | 2 | 234 | 0.0 | 0.0 | 0.00 | 0.03 | 0.03 | 79 | 1016.4 |
| 20260510084546 | 2 | 234 | 0.0 | 0.0 | 0.00 | 0.03 | 0.03 | 79 | 1016.4 |
| 20260510084307 | 2 | 234 | 0.0 | 0.0 | 0.00 | 0.03 | 0.03 | 79 | 1016.4 |
| 20260510084032 | 2 | 234 | 0.0 | 0.0 | 0.00 | 0.03 | 0.03 | 79 | 1016.3 |
| 20260510083804 | 2 | 234 | 0.0 | 0.0 | 0.00 | 0.03 | 0.03 | 79 | 1016.4 |
| 20260510083634 | 2 | 234 | 0.0 | 0.0 | 0.00 | 0.03 | 0.03 | 79 | 1016.4 |
| 20260510083526 | 2 | 234 | 0.0 | 0.0 | 0.00 | 0.03 | 0.03 | 79 | 1016.4 |
| 20260510083305 | 2 | 234 | 0.0 | 0.0 | 0.00 | 0.03 | 0.03 | 79 | 1016.3 |
| 20260510083233 | 2 | 234 | 0.0 | 0.0 | 0.00 | 0.03 | 0.03 | 79 | 1016.3 |
| 20260510083030 | 2 | 234 | 0.0 | 0.0 | 0.00 | 0.03 | 0.03 | 79 | 1016.2 |
| 20260510082805 | 2 | 234 | 0.0 | 0.0 | 0.00 | 0.03 | 0.03 | 79 | 1016.2 |
| 20260510082631 | 2 | 234 | 0.0 | 0.0 | 0.00 | 0.03 | 0.03 | 79 | 1016.2 |
| 20260510082431 | 2 | 234 | 0.0 | 0.0 | 0.00 | 0.03 | 0.03 | 79 | 1016.2 |
| 20260510082306 | 3 | 234 | 0.0 | 0.0 | 0.00 | 0.03 | 0.03 | 78 | 1016.2 |
| 20260510082233 | 2 | 234 | 0.0 | 0.0 | 0.00 | 0.03 | 0.03 | 78 | 1016.1 |
| 20260510082008 | 3 | 234 | 0.0 | 0.0 | 0.00 | 0.03 | 0.03 | 78 | 1016.1 |
| 20260510081909 | 3 | 234 | 0.0 | 0.0 | 0.00 | 0.03 | 0.03 | 78 | 1016.1 |
| 20260510081754 | 3 | 234 | 0.0 | 0.0 | 0.00 | 0.03 | 0.03 | 78 | 1016.1 |
| 20260510081606 | 3 | 234 | 0.0 | 0.0 | 0.03 | 0.03 | 0.03 | 78 | 1016.1 |
| 20260510081403 | 3 | 234 | 0.0 | 0.0 | 0.03 | 0.03 | 0.03 | 78 | 1016.0 |
| 20260510081253 | 3 | 234 | 0.0 | 0.0 | 0.03 | 0.03 | 0.03 | 78 | 1016.0 |
| 20260510081204 | 3 | 234 | 0.0 | 0.0 | 0.03 | 0.03 | 0.03 | 77 | 1016.1 |
| 20260510081004 | 3 | 234 | 0.0 | 0.0 | 0.03 | 0.03 | 0.03 | 77 | 1016.0 |
| 20260510080809 | 3 | 234 | 0.0 | 0.0 | 0.03 | 0.03 | 0.03 | 77 | 1016.1 |
| 20260510080751 | 3 | 234 | 0.0 | 0.0 | 0.03 | 0.03 | 0.03 | 77 | 1016.1 |
| 20260510080606 | 3 | 234 | 0.0 | 0.0 | 0.03 | 0.03 | 0.03 | 77 | 1016.0 |
| 20260510080405 | 3 | 234 | 0.0 | 0.0 | 0.03 | 0.03 | 0.03 | 77 | 1016.0 |
| 20260510080310 | 3 | 234 | 0.0 | 0.0 | 0.03 | 0.03 | 0.03 | 77 | 1016.0 |
| 20260510080251 | 3 | 234 | 0.0 | 0.0 | 0.03 | 0.03 | 0.03 | 77 | 1016.1 |
| 20260510075956 | 3 | 234 | 0.0 | 0.0 | 0.03 | 0.00 | 0.03 | 78 | 1015.9 |
| 20260510075759 | 3 | 234 | 0.0 | 0.0 | 0.03 | 0.00 | 0.03 | 78 | 1016.0 |
| 20260510075534 | 3 | 234 | 0.0 | 0.0 | 0.03 | 0.00 | 0.03 | 78 | 1016.0 |
| 20260510075528 | 3 | 234 | 0.0 | 0.0 | 0.03 | 0.00 | 0.03 | 77 | 1016.0 |
| 20260510075504 | 3 | 234 | 0.0 | 0.0 | 0.03 | 0.00 | 0.03 | 78 | 1015.9 |
| 20260510075135 | 3 | 234 | 0.0 | 0.0 | 0.03 | 0.00 | 0.03 | 77 | 1015.9 |
| 20260510074906 | 3 | 234 | 0.0 | 0.0 | 0.03 | 0.00 | 0.03 | 77 | 1015.9 |
| 20260510074704 | 3 | 234 | 0.0 | 0.0 | 0.03 | 0.00 | 0.03 | 76 | 1015.9 |
| 20260510074610 | 3 | 234 | 0.0 | 0.0 | 0.03 | 0.00 | 0.03 | 76 | 1015.8 |
| 20260510074457 | 3 | 234 | 0.0 | 0.0 | 0.03 | 0.00 | 0.03 | 75 | 1015.9 |
| 20260510074435 | 3 | 234 | 0.0 | 0.0 | 0.03 | 0.00 | 0.03 | 75 | 1015.9 |
| 20260510074102 | 3 | 234 | 0.0 | 0.0 | 0.03 | 0.00 | 0.03 | 75 | 1015.8 |
| 20260510073904 | 3 | 234 | 0.0 | 0.0 | 0.03 | 0.00 | 0.03 | 75 | 1015.8 |
| 20260510073703 | 3 | 234 | 0.0 | 0.0 | 0.03 | 0.00 | 0.03 | 75 | 1015.8 |
| 20260510073659 | 3 | 234 | 0.0 | 0.0 | 0.03 | 0.00 | 0.03 | 75 | 1015.8 |
| 20260510073501 | 3 | 234 | 0.0 | 0.0 | 0.03 | 0.00 | 0.03 | 75 | 1015.9 |
| 20260510073431 | 3 | 234 | 0.0 | 0.0 | 0.03 | 0.00 | 0.03 | 75 | 1015.9 |
| 20260510073058 | 3 | 234 | 0.0 | 0.0 | 0.03 | 0.00 | 0.03 | 75 | 1015.9 |
| 20260510072955 | 3 | 234 | 0.0 | 0.0 | 0.03 | 0.00 | 0.03 | 75 | 1015.9 |
| 20260510072704 | 3 | 234 | 0.0 | 0.0 | 0.03 | 0.00 | 0.03 | 74 | 1015.9 |
| 20260510072658 | 3 | 234 | 0.0 | 0.0 | 0.03 | 0.00 | 0.03 | 74 | 1015.9 |
| 20260510072504 | 3 | 234 | 0.0 | 0.0 | 0.03 | 0.00 | 0.03 | 74 | 1015.9 |
| 20260510072458 | 3 | 234 | 0.0 | 0.0 | 0.03 | 0.00 | 0.03 | 74 | 1015.9 |
| 20260510072431 | 3 | 234 | 0.0 | 0.0 | 0.03 | 0.00 | 0.03 | 74 | 1015.9 |
| 20260510072054 | 3 | 234 | 0.0 | 0.0 | 0.03 | 0.00 | 0.03 | 74 | 1015.9 |
| 20260510071855 | 4 | 234 | 0.0 | 0.0 | 0.03 | 0.00 | 0.03 | 74 | 1015.9 |
| 20260510071703 | 4 | 234 | 0.0 | 0.0 | 0.00 | 0.00 | 0.00 | 74 | 1015.9 |
| 20260510071654 | 4 | 234 | 0.0 | 0.0 | 0.00 | 0.00 | 0.00 | 74 | 1015.9 |
| 20260510071452 | 4 | 234 | 0.0 | 0.0 | 0.00 | 0.00 | 0.00 | 74 | 1015.9 |
| 20260510071252 | 4 | 234 | 0.0 | 1.6 | 0.00 | 0.00 | 0.00 | 74 | 1015.8 |
| 20260510071201 | 4 | 234 | 0.0 | 1.6 | 0.00 | 0.00 | 0.00 | 74 | 1015.9 |
| 20260510071054 | 4 | 234 | 0.0 | 1.6 | 0.00 | 0.00 | 0.00 | 74 | 1015.9 |
| 20260510070952 | 4 | 234 | 0.0 | 1.6 | 0.00 | 0.00 | 0.00 | 74 | 1016.0 |
| 20260510070701 | 4 | 234 | 0.0 | 1.6 | 0.00 | 0.00 | 0.00 | 74 | 1015.9 |
| 20260510070654 | 4 | 234 | 0.0 | 1.6 | 0.00 | 0.00 | 0.00 | 74 | 1015.9 |
| 20260510070454 | 4 | 234 | 0.0 | 1.6 | 0.00 | 0.00 | 0.00 | 74 | 1016.0 |
| 20260510070254 | 4 | 234 | 0.0 | 1.6 | 0.00 | 0.00 | 0.00 | 74 | 1016.0 |
| 20260510070209 | 4 | 234 | 0.0 | 0.0 | 0.00 | 0.00 | 0.00 | 74 | 1016.0 |
| 20260510070054 | 4 | 234 | 0.0 | 0.0 | 0.00 | 0.00 | 0.00 | 74 | 1016.0 |
| 20260510065856 | 5 | 234 | 0.0 | 0.0 | 0.00 | 0.00 | 0.00 | 74 | 1015.9 |
| 20260510065701 | 5 | 234 | 0.0 | 0.0 | 0.00 | 0.00 | 0.00 | 74 | 1016.0 |
| 20260510065656 | 5 | 234 | 0.0 | 0.0 | 0.00 | 0.00 | 0.00 | 74 | 1016.0 |
| 20260510065455 | 5 | 234 | 0.0 | 0.0 | 0.00 | 0.00 | 0.00 | 74 | 1016.0 |
| 20260510065355 | 5 | 234 | 0.0 | 0.0 | 0.00 | 0.00 | 0.00 | 74 | 1015.9 |
| 20260510065202 | 5 | 234 | 0.0 | 0.0 | 0.00 | 0.00 | 0.00 | 74 | 1015.9 |
| 20260510065054 | 5 | 234 | 0.0 | 1.6 | 0.00 | 0.00 | 0.00 | 73 | 1015.9 |
| 20260510064856 | 5 | 234 | 0.0 | 1.6 | 0.00 | 0.00 | 0.00 | 73 | 1015.9 |
| 20260510064657 | 5 | 234 | 0.0 | 1.6 | 0.00 | 0.00 | 0.00 | 73 | 1015.9 |
| 20260510064454 | 5 | 234 | 0.0 | 1.6 | 0.00 | 0.00 | 0.00 | 73 | 1015.9 |
| 20260510064255 | 5 | 234 | 0.0 | 1.6 | 0.00 | 0.00 | 0.00 | 73 | 1015.8 |
| 20260510064158 | 5 | 234 | 0.0 | 1.6 | 0.00 | 0.00 | 0.00 | 72 | 1015.7 |
| 20260510064055 | 5 | 234 | 0.0 | 1.6 | 0.00 | 0.00 | 0.00 | 72 | 1015.8 |
| 20260510063854 | 5 | 234 | 0.0 | 0.0 | 0.00 | 0.00 | 0.00 | 70 | 1015.8 |
| 20260510063655 | 5 | 230 | 0.0 | 0.0 | 0.00 | 0.00 | 0.00 | 70 | 1015.8 |
| 20260510063556 | 6 | 230 | 0.0 | 0.0 | 0.00 | 0.00 | 0.00 | 69 | 1015.7 |
| 20260510063253 | 6 | 230 | 0.0 | 0.0 | 0.00 | 0.00 | 0.00 | 68 | 1015.8 |
| 20260510063202 | 6 | 230 | 0.0 | 0.0 | 0.00 | 0.00 | 0.00 | 68 | 1015.7 |
| 20260510063053 | 6 | 230 | 0.0 | 0.0 | 0.00 | 0.00 | 0.00 | 69 | 1015.8 |
| 20260510062853 | 6 | 230 | 0.0 | 0.0 | 0.00 | 0.00 | 0.00 | 69 | 1015.7 |
| 20260510062654 | 6 | 230 | 0.0 | 0.0 | 0.00 | 0.00 | 0.00 | 68 | 1015.7 |
| 20260510062510 | 6 | 230 | 0.0 | 0.0 | 0.00 | 0.00 | 0.00 | 68 | 1015.8 |
| 20260510062502 | 6 | 230 | 0.0 | 0.0 | 0.00 | 0.00 | 0.00 | 69 | 1015.8 |
| 20260510062435 | 6 | 230 | 0.0 | 0.0 | 0.00 | 0.00 | 0.00 | 68 | 1015.8 |
| 20260510062052 | 6 | 230 | 0.0 | 0.0 | 0.00 | 0.00 | 0.00 | 67 | 1015.8 |
| 20260510061953 | 6 | 230 | 0.0 | 0.0 | 0.00 | 0.00 | 0.00 | 67 | 1015.7 |
| 20260510061657 | 6 | 230 | 0.0 | 0.0 | 0.00 | 0.00 | 0.00 | 66 | 1015.8 |
| 20260510061453 | 6 | 230 | 0.0 | 0.0 | 0.00 | 0.00 | 0.00 | 66 | 1015.7 |
| 20260510061444 | 6 | 230 | 0.0 | 1.6 | 0.00 | 0.00 | 0.00 | 67 | 1015.7 |
| 20260510061421 | 6 | 230 | 0.0 | 1.6 | 0.00 | 0.00 | 0.00 | 67 | 1015.7 |
| 20260510061053 | 6 | 230 | 0.0 | 1.6 | 0.00 | 0.00 | 0.00 | 67 | 1015.8 |
| 20260510060853 | 6 | 230 | 0.0 | 1.6 | 0.00 | 0.00 | 0.00 | 68 | 1015.8 |
| 20260510060655 | 6 | 230 | 0.0 | 1.6 | 0.00 | 0.00 | 0.00 | 67 | 1015.8 |
| 20260510060522 | 6 | 230 | 0.0 | 0.0 | 0.00 | 0.00 | 0.00 | 65 | 1015.7 |
| 20260510060453 | 6 | 230 | 0.0 | 1.6 | 0.00 | 0.00 | 0.00 | 65 | 1015.8 |
| 20260510060439 | 6 | 230 | 0.0 | 0.0 | 0.00 | 0.00 | 0.00 | 66 | 1015.8 |
| 20260510060052 | 6 | 230 | 0.0 | 0.0 | 0.00 | 0.00 | 0.00 | 66 | 1015.8 |
| 20260510055852 | 6 | 230 | 0.0 | 0.0 | 0.00 | 0.00 | 0.00 | 65 | 1015.8 |
| 20260510055654 | 6 | 230 | 0.0 | 0.0 | 0.00 | 0.00 | 0.00 | 65 | 1015.7 |
| 20260510055453 | 6 | 230 | 0.0 | 0.0 | 0.00 | 0.00 | 0.00 | 63 | 1015.9 |
| 20260510055333 | 6 | 230 | 0.0 | 0.0 | 0.00 | 0.00 | 0.00 | 63 | 1015.7 |
| 20260510055152 | 6 | 230 | 0.0 | 0.0 | 0.00 | 0.00 | 0.00 | 62 | 1015.7 |
| 20260510055036 | 6 | 230 | 0.0 | 0.0 | 0.00 | 0.00 | 0.00 | 62 | 1015.7 |
| 20260510054835 | 7 | 230 | 0.0 | 0.0 | 0.00 | 0.00 | 0.00 | 62 | 1015.7 |
| 20260510054653 | 7 | 230 | 0.0 | 0.0 | 0.00 | 0.00 | 0.00 | 62 | 1015.7 |
| 20260510054640 | 7 | 230 | 0.0 | 0.0 | 0.00 | 0.00 | 0.00 | 62 | 1015.6 |
| 20260510054449 | 7 | 230 | 0.0 | 0.0 | 0.00 | 0.00 | 0.00 | 60 | 1015.6 |
| 20260510054442 | 7 | 230 | 0.0 | 0.0 | 0.00 | 0.00 | 0.00 | 62 | 1015.6 |
| 20260510054418 | 7 | 230 | 0.0 | 0.0 | 0.00 | 0.00 | 0.00 | 60 | 1015.6 |
| 20260510054032 | 7 | 230 | 0.0 | 0.0 | 0.00 | 0.00 | 0.00 | 60 | 1015.6 |
| 20260510053820 | 7 | 230 | 0.0 | 0.0 | 0.00 | 0.00 | 0.00 | 60 | 1015.5 |
| 20260510053652 | 7 | 230 | 0.0 | 0.0 | 0.00 | 0.00 | 0.00 | 60 | 1015.4 |
| 20260510053445 | 7 | 230 | 0.0 | 0.0 | 0.00 | 0.00 | 0.00 | 58 | 1015.3 |
| 20260510053438 | 7 | 230 | 0.0 | 0.0 | 0.00 | 0.00 | 0.00 | 59 | 1015.4 |
| 20260510053410 | 7 | 230 | 0.0 | 0.0 | 0.00 | 0.00 | 0.00 | 58 | 1015.3 |
| 20260510053019 | 8 | 230 | 0.0 | 0.0 | 0.00 | 0.00 | 0.00 | 58 | 1015.4 |
| 20260510052818 | 8 | 230 | 0.0 | 0.0 | 0.00 | 0.00 | 0.00 | 58 | 1015.4 |
| 20260510052623 | 8 | 230 | 0.0 | 0.0 | 0.00 | 0.00 | 0.00 | 58 | 1015.4 |
| 20260510052445 | 8 | 230 | 0.0 | 0.0 | 0.00 | 0.00 | 0.00 | 59 | 1015.4 |
| 20260510052437 | 8 | 230 | 0.0 | 0.0 | 0.00 | 0.00 | 0.00 | 60 | 1015.4 |
| 20260510052408 | 8 | 230 | 0.0 | 0.0 | 0.00 | 0.00 | 0.00 | 59 | 1015.4 |
| 20260510052015 | 8 | 230 | 0.0 | 0.0 | 0.00 | 0.00 | 0.00 | 58 | 1015.3 |
| 20260510051813 | 8 | 230 | 0.0 | 0.0 | 0.00 | 0.00 | 0.00 | 57 | 1015.3 |
| 20260510051650 | 8 | 230 | 0.0 | 0.0 | 0.00 | 0.00 | 0.00 | 57 | 1015.4 |
| 20260510051612 | 8 | 230 | 0.0 | 0.0 | 0.00 | 0.00 | 0.00 | 57 | 1015.4 |
| 20260510051440 | 8 | 230 | 0.0 | 0.0 | 0.00 | 0.00 | 0.00 | 57 | 1015.3 |
| 20260510051429 | 8 | 230 | 0.0 | 0.0 | 0.00 | 0.00 | 0.00 | 56 | 1015.4 |
| 20260510051402 | 8 | 230 | 0.0 | 0.0 | 0.00 | 0.00 | 0.00 | 57 | 1015.3 |
| 20260510051009 | 8 | 230 | 0.0 | 0.0 | 0.00 | 0.00 | 0.00 | 58 | 1015.4 |
| 20260510050810 | 8 | 230 | 0.0 | 0.0 | 0.00 | 0.00 | 0.00 | 53 | 1015.4 |
| 20260510050640 | 8 | 230 | 0.0 | 0.0 | 0.00 | 0.00 | 0.00 | 53 | 1015.4 |
| 20260510050409 | 8 | 230 | 0.0 | 1.6 | 0.00 | 0.00 | 0.00 | 53 | 1015.4 |
| 20260510050207 | 8 | 230 | 0.0 | 1.6 | 0.00 | 0.00 | 0.00 | 53 | 1015.4 |
| 20260510050143 | 8 | 230 | 0.0 | 1.6 | 0.00 | 0.00 | 0.00 | 53 | 1015.4 |
| 20260510050007 | 8 | 230 | 0.0 | 1.6 | 0.00 | 0.00 | 0.00 | 53 | 1015.4 |
| 20260510045931 | 8 | 230 | 0.0 | 1.6 | 0.00 | 0.00 | 0.00 | 53 | 1015.5 |
| 20260510045911 | 8 | 230 | 0.0 | 1.6 | 0.00 | 0.00 | 0.00 | 53 | 1015.4 |
| 20260510045608 | 8 | 230 | 0.0 | 1.6 | 0.00 | 0.00 | 0.00 | 53 | 1015.5 |
| 20260510045405 | 8 | 230 | 0.0 | 1.6 | 0.00 | 0.00 | 0.00 | 53 | 1015.4 |
| 20260510045205 | 8 | 230 | 0.0 | 1.6 | 0.00 | 0.00 | 0.00 | 54 | 1015.3 |
| 20260510045139 | 8 | 230 | 0.0 | 1.6 | 0.00 | 0.00 | 0.00 | 54 | 1015.4 |
| 20260510045113 | 8 | 230 | 0.0 | 1.6 | 0.00 | 0.00 | 0.00 | 54 | 1015.4 |
| 20260510044924 | 8 | 230 | 0.0 | 1.6 | 0.00 | 0.00 | 0.00 | 54 | 1015.5 |
| 20260510044908 | 8 | 230 | 0.0 | 1.6 | 0.00 | 0.00 | 0.00 | 53 | 1015.4 |
| 20260510044608 | 8 | 230 | 0.0 | 1.6 | 0.00 | 0.00 | 0.00 | 54 | 1015.5 |
| 20260510044405 | 9 | 230 | 0.0 | 1.6 | 0.00 | 0.00 | 0.00 | 54 | 1015.5 |
| 20260510044206 | 9 | 230 | 0.0 | 1.6 | 0.00 | 0.00 | 0.00 | 54 | 1015.5 |
| 20260510044134 | 9 | 230 | 0.0 | 1.6 | 0.00 | 0.00 | 0.00 | 54 | 1015.4 |
| 20260510043955 | 9 | 230 | 0.0 | 1.6 | 0.00 | 0.00 | 0.00 | 53 | 1015.4 |
| 20260510043919 | 9 | 230 | 0.0 | 1.6 | 0.00 | 0.00 | 0.00 | 54 | 1015.4 |
| 20260510043901 | 9 | 230 | 0.0 | 1.6 | 0.00 | 0.00 | 0.00 | 54 | 1015.4 |
| 20260510043559 | 9 | 230 | 0.0 | 1.6 | 0.00 | 0.00 | 0.00 | 54 | 1015.4 |
| 20260510043357 | 9 | 230 | 0.0 | 3.2 | 0.00 | 0.00 | 0.00 | 53 | 1015.4 |
| 20260510043133 | 9 | 230 | 0.0 | 3.2 | 0.00 | 0.00 | 0.00 | 53 | 1015.4 |
| 20260510042954 | 9 | 230 | 0.0 | 3.2 | 0.00 | 0.00 | 0.00 | 53 | 1015.2 |
| 20260510042754 | 9 | 230 | 0.0 | 3.2 | 0.00 | 0.00 | 0.00 | 53 | 1015.2 |
| 20260510042657 | 9 | 230 | 0.0 | 3.2 | 0.00 | 0.00 | 0.00 | 53 | 1015.3 |
| 20260510042630 | 9 | 230 | 0.0 | 3.2 | 0.00 | 0.00 | 0.00 | 53 | 1015.3 |
| 20260510042429 | 9 | 235 | 0.0 | 0.0 | 0.00 | 0.00 | 0.00 | 53 | 1015.2 |
| 20260510042420 | 9 | 235 | 0.0 | 1.6 | 0.00 | 0.00 | 0.00 | 54 | 1015.2 |
| 20260510042350 | 9 | 235 | 0.0 | 0.0 | 0.00 | 0.00 | 0.00 | 53 | 1015.2 |
| 20260510041956 | 9 | 235 | 0.0 | 0.0 | 0.00 | 0.00 | 0.00 | 53 | 1015.2 |
| 20260510041754 | 9 | 235 | 0.0 | 0.0 | 0.00 | 0.00 | 0.00 | 53 | 1015.2 |
| 20260510041629 | 9 | 235 | 0.0 | 0.0 | 0.00 | 0.00 | 0.00 | 53 | 1015.1 |
| 20260510041555 | 9 | 235 | 0.0 | 1.6 | 0.00 | 0.00 | 0.00 | 53 | 1015.1 |
| 20260510041426 | 9 | 235 | 0.0 | 1.6 | 0.00 | 0.00 | 0.00 | 52 | 1015.0 |
| 20260510041419 | 9 | 235 | 0.0 | 1.6 | 0.00 | 0.00 | 0.00 | 52 | 1015.1 |
| 20260510041349 | 9 | 235 | 0.0 | 1.6 | 0.00 | 0.00 | 0.00 | 52 | 1015.1 |
| 20260510041054 | 10 | 235 | 0.0 | 1.6 | 0.00 | 0.00 | 0.00 | 52 | 1015.1 |
| 20260510040753 | 10 | 235 | 0.0 | 1.6 | 0.00 | 0.00 | 0.00 | 52 | 1015.1 |
| 20260510040633 | 10 | 235 | 0.0 | 1.6 | 0.00 | 0.00 | 0.00 | 52 | 1015.0 |
| 20260510040551 | 10 | 235 | 0.0 | 1.6 | 0.00 | 0.00 | 0.00 | 52 | 1015.0 |
| 20260510040426 | 10 | 235 | 0.0 | 0.0 | 0.00 | 0.00 | 0.00 | 51 | 1015.0 |
| 20260510040417 | 10 | 235 | 0.0 | 1.6 | 0.00 | 0.00 | 0.00 | 51 | 1015.0 |
| 20260510040349 | 10 | 235 | 0.0 | 0.0 | 0.00 | 0.00 | 0.00 | 51 | 1015.0 |
| 20260510035951 | 10 | 235 | 0.0 | 1.6 | 0.00 | 0.00 | 0.00 | 52 | 1015.0 |
| 20260510035751 | 10 | 235 | 0.0 | 1.6 | 0.00 | 0.00 | 0.00 | 51 | 1015.0 |
| 20260510035634 | 10 | 235 | 0.0 | 1.6 | 0.00 | 0.00 | 0.00 | 49 | 1015.0 |
| 20260510035552 | 10 | 235 | 0.0 | 1.6 | 0.00 | 0.00 | 0.00 | 49 | 1015.0 |
| 20260510035356 | 10 | 235 | 0.0 | 1.6 | 0.00 | 0.00 | 0.00 | 49 | 1014.8 |
| 20260510035335 | 10 | 235 | 0.0 | 1.6 | 0.00 | 0.00 | 0.00 | 49 | 1014.8 |
| 20260510034951 | 10 | 235 | 0.0 | 1.6 | 0.00 | 0.00 | 0.00 | 50 | 1014.7 |
| 20260510034751 | 10 | 235 | 0.0 | 1.6 | 0.00 | 0.00 | 0.00 | 49 | 1014.7 |
| 20260510034616 | 10 | 235 | 0.0 | 1.6 | 0.00 | 0.00 | 0.00 | 49 | 1014.8 |
| 20260510034553 | 10 | 235 | 0.0 | 1.6 | 0.00 | 0.00 | 0.00 | 49 | 1014.8 |
| 20260510034350 | 10 | 235 | 0.0 | 1.6 | 0.00 | 0.00 | 0.00 | 50 | 1014.6 |
| 20260510034325 | 10 | 235 | 0.0 | 1.6 | 0.00 | 0.00 | 0.00 | 51 | 1014.7 |
| 20260510034115 | 10 | 235 | 0.0 | 1.6 | 0.00 | 0.00 | 0.00 | 51 | 1014.7 |
| 20260510033958 | 10 | 235 | 0.0 | 1.6 | 0.00 | 0.00 | 0.00 | 51 | 1014.7 |
| 20260510033754 | 10 | 235 | 0.0 | 1.6 | 0.00 | 0.00 | 0.00 | 50 | 1014.6 |
| 20260510033611 | 10 | 234 | 0.0 | 1.6 | 0.00 | 0.00 | 0.00 | 50 | 1014.7 |
| 20260510033555 | 10 | 234 | 0.0 | 1.6 | 0.00 | 0.00 | 0.00 | 49 | 1014.7 |
| 20260510033353 | 10 | 234 | 0.0 | 1.6 | 0.00 | 0.00 | 0.00 | 51 | 1014.6 |
| 20260510033154 | 10 | 234 | 0.0 | 1.6 | 0.00 | 0.00 | 0.00 | 50 | 1014.6 |
| 20260510033111 | 10 | 234 | 0.0 | 1.6 | 0.00 | 0.00 | 0.00 | 50 | 1014.6 |
| 20260510032954 | 10 | 234 | 0.0 | 4.8 | 0.00 | 0.00 | 0.00 | 50 | 1014.6 |
| 20260510032755 | 10 | 234 | 0.0 | 4.8 | 0.00 | 0.00 | 0.00 | 50 | 1014.5 |
| 20260510032658 | 10 | 234 | 0.0 | 4.8 | 0.00 | 0.00 | 0.00 | 51 | 1014.5 |
| 20260510032611 | 10 | 234 | 0.0 | 4.8 | 0.00 | 0.00 | 0.00 | 50 | 1014.5 |
| 20260510032353 | 10 | 234 | 0.0 | 4.8 | 0.00 | 0.00 | 0.00 | 51 | 1014.5 |
| 20260510032155 | 10 | 234 | 0.0 | 4.8 | 0.00 | 0.00 | 0.00 | 49 | 1014.5 |
| 20260510032111 | 10 | 234 | 0.0 | 4.8 | 0.00 | 0.00 | 0.00 | 49 | 1014.5 |
| 20260510031959 | 10 | 250 | 0.0 | 3.2 | 0.00 | 0.00 | 0.00 | 49 | 1014.4 |
| 20260510031732 | 10 | 250 | 0.0 | 3.2 | 0.00 | 0.00 | 0.00 | 49 | 1014.4 |
| 20260510031621 | 10 | 250 | 0.0 | 3.2 | 0.00 | 0.00 | 0.00 | 49 | 1014.4 |
| 20260510031611 | 10 | 250 | 0.0 | 3.2 | 0.00 | 0.00 | 0.00 | 49 | 1014.4 |
| 20260510031316 | 10 | 250 | 0.0 | 6.4 | 0.00 | 0.00 | 0.00 | 49 | 1014.3 |
| 20260510031110 | 10 | 250 | 0.0 | 6.4 | 0.00 | 0.00 | 0.00 | 48 | 1014.3 |
| 20260510030912 | 10 | 250 | 0.0 | 6.4 | 0.00 | 0.00 | 0.00 | 48 | 1014.3 |
| 20260510030709 | 10 | 250 | 0.0 | 6.4 | 0.00 | 0.00 | 0.00 | 48 | 1014.2 |
| 20260510030607 | 10 | 250 | 0.0 | 6.4 | 0.00 | 0.00 | 0.00 | 48 | 1014.2 |
| 20260510030509 | 10 | 235 | 0.0 | 4.8 | 0.00 | 0.00 | 0.00 | 48 | 1014.2 |
| 20260510030310 | 10 | 223 | 0.0 | 4.8 | 0.00 | 0.00 | 0.00 | 48 | 1014.2 |
| 20260510030109 | 10 | 223 | 0.0 | 3.2 | 0.00 | 0.00 | 0.00 | 48 | 1014.1 |
| 20260510030006 | 11 | 223 | 0.0 | 3.2 | 0.00 | 0.00 | 0.00 | 48 | 1014.1 |
| 20260510025707 | 11 | 223 | 0.0 | 3.2 | 0.00 | 0.00 | 0.00 | 48 | 1014.2 |
| 20260510025603 | 11 | 223 | 0.0 | 3.2 | 0.00 | 0.00 | 0.00 | 48 | 1014.1 |
| 20260510025507 | 11 | 223 | 0.0 | 3.2 | 0.00 | 0.00 | 0.00 | 47 | 1014.2 |
| 20260510025306 | 11 | 221 | 0.0 | 3.2 | 0.00 | 0.00 | 0.00 | 47 | 1014.1 |
| 20260510025101 | 11 | 221 | 0.0 | 3.2 | 0.00 | 0.00 | 0.00 | 46 | 1014.0 |
| 20260510024906 | 11 | 221 | 0.0 | 3.2 | 0.00 | 0.00 | 0.00 | 47 | 1014.0 |
| 20260510024705 | 11 | 221 | 0.0 | 3.2 | 0.00 | 0.00 | 0.00 | 47 | 1014.0 |
| 20260510024601 | 11 | 221 | 0.0 | 3.2 | 0.00 | 0.00 | 0.00 | 47 | 1013.9 |
| 20260510024505 | 11 | 221 | 0.0 | 3.2 | 0.00 | 0.00 | 0.00 | 47 | 1014.0 |
| 20260510024359 | 11 | 221 | 0.0 | 3.2 | 0.00 | 0.00 | 0.00 | 47 | 1013.9 |
| 20260510024101 | 11 | 221 | 0.0 | 3.2 | 0.00 | 0.00 | 0.00 | 47 | 1013.9 |
| 20260510023904 | 11 | 221 | 0.0 | 3.2 | 0.00 | 0.00 | 0.00 | 46 | 1013.9 |
| 20260510023704 | 11 | 221 | 0.0 | 3.2 | 0.00 | 0.00 | 0.00 | 47 | 1013.8 |
| 20260510023602 | 11 | 221 | 0.0 | 3.2 | 0.00 | 0.00 | 0.00 | 47 | 1013.8 |
| 20260510023536 | 11 | 221 | 0.0 | 3.2 | 0.00 | 0.00 | 0.00 | 47 | 1013.7 |
| 20260510023302 | 11 | 221 | 0.0 | 3.2 | 0.00 | 0.00 | 0.00 | 46 | 1013.7 |
| 20260510023103 | 11 | 221 | 0.0 | 1.6 | 0.00 | 0.00 | 0.00 | 46 | 1013.6 |
| 20260510023000 | 11 | 221 | 0.0 | 3.2 | 0.00 | 0.00 | 0.00 | 46 | 1013.6 |
| 20260510022705 | 11 | 221 | 0.0 | 3.2 | 0.00 | 0.00 | 0.00 | 45 | 1013.5 |
| 20260510022603 | 11 | 221 | 0.0 | 3.2 | 0.00 | 0.00 | 0.00 | 45 | 1013.5 |
| 20260510022502 | 11 | 221 | 0.0 | 3.2 | 0.00 | 0.00 | 0.00 | 45 | 1013.5 |
| 20260510022257 | 11 | 221 | 0.0 | 3.2 | 0.00 | 0.00 | 0.00 | 46 | 1013.4 |
| 20260510022106 | 11 | 221 | 0.0 | 3.2 | 0.00 | 0.00 | 0.00 | 46 | 1013.3 |
| 20260510022058 | 11 | 221 | 0.0 | 3.2 | 0.00 | 0.00 | 0.00 | 46 | 1013.3 |
| 20260510021856 | 11 | 220 | 0.0 | 3.2 | 0.00 | 0.00 | 0.00 | 47 | 1013.4 |
| 20260510021653 | 11 | 221 | 0.0 | 3.2 | 0.00 | 0.00 | 0.00 | 45 | 1013.3 |
| 20260510021602 | 11 | 221 | 0.0 | 3.2 | 0.00 | 0.00 | 0.00 | 45 | 1013.3 |
| 20260510021453 | 11 | 221 | 0.0 | 3.2 | 0.00 | 0.00 | 0.00 | 45 | 1013.3 |
| 20260510021359 | 11 | 223 | 0.0 | 3.2 | 0.00 | 0.00 | 0.00 | 46 | 1013.3 |
| 20260510021102 | 11 | 186 | 0.0 | 3.2 | 0.00 | 0.00 | 0.00 | 46 | 1013.1 |
| 20260510021052 | 11 | 186 | 0.0 | 3.2 | 0.00 | 0.00 | 0.00 | 46 | 1013.1 |
| 20260510020852 | 11 | 186 | 0.0 | 3.2 | 0.00 | 0.00 | 0.00 | 46 | 1013.0 |
| 20260510020639 | 11 | 186 | 0.0 | 3.2 | 0.00 | 0.00 | 0.00 | 46 | 1013.1 |
| 20260510020556 | 11 | 186 | 0.0 | 3.2 | 0.00 | 0.00 | 0.00 | 46 | 1013.1 |
| 20260510020432 | 11 | 186 | 0.0 | 3.2 | 0.00 | 0.00 | 0.00 | 45 | 1013.0 |
| 20260510020230 | 11 | 186 | 0.0 | 3.2 | 0.00 | 0.00 | 0.00 | 44 | 1012.9 |
| 20260510020030 | 11 | 186 | 0.0 | 3.2 | 0.00 | 0.00 | 0.00 | 46 | 1012.9 |
| 20260510015831 | 11 | 186 | 0.0 | 3.2 | 0.00 | 0.00 | 0.00 | 45 | 1012.8 |
| 20260510015728 | 11 | 186 | 0.0 | 3.2 | 0.00 | 0.00 | 0.00 | 45 | 1012.8 |
| 20260510015556 | 11 | 186 | 0.0 | 3.2 | 0.00 | 0.00 | 0.00 | 45 | 1012.8 |
| 20260510015430 | 12 | 182 | 0.0 | 3.2 | 0.00 | 0.00 | 0.00 | 44 | 1012.7 |
| 20260510015230 | 12 | 182 | 0.0 | 1.6 | 0.00 | 0.00 | 0.00 | 44 | 1012.7 |
| 20260510015136 | 12 | 182 | 0.0 | 1.6 | 0.00 | 0.00 | 0.00 | 44 | 1012.6 |
| 20260510015052 | 12 | 182 | 0.0 | 1.6 | 0.00 | 0.00 | 0.00 | 44 | 1012.7 |
| 20260510014912 | 12 | 182 | 0.0 | 1.6 | 0.00 | 0.00 | 0.00 | 43 | 1012.6 |
| 20260510014854 | 12 | 182 | 0.0 | 1.6 | 0.00 | 0.00 | 0.00 | 44 | 1012.6 |
| 20260510014820 | 12 | 182 | 0.0 | 1.6 | 0.00 | 0.00 | 0.00 | 45 | 1012.6 |
| 20260510014432 | 12 | 182 | 0.0 | 4.8 | 0.00 | 0.00 | 0.00 | 43 | 1012.6 |
| 20260510014359 | 12 | 182 | 0.0 | 4.8 | 0.00 | 0.00 | 0.00 | 44 | 1012.5 |
| 20260510014334 | 12 | 182 | 0.0 | 4.8 | 0.00 | 0.00 | 0.00 | 42 | 1012.5 |
| 20260510014031 | 12 | 183 | 0.0 | 4.8 | 0.00 | 0.00 | 0.00 | 45 | 1012.6 |
| 20260510013832 | 12 | 127 | 0.0 | 4.8 | 0.00 | 0.00 | 0.00 | 45 | 1012.5 |
| 20260510013622 | 12 | 127 | 0.0 | 4.8 | 0.00 | 0.00 | 0.00 | 44 | 1012.5 |
| 20260510013552 | 12 | 127 | 0.0 | 4.8 | 0.00 | 0.00 | 0.00 | 44 | 1012.5 |
| 20260510013518 | 12 | 152 | 0.0 | 3.2 | 0.00 | 0.00 | 0.00 | 42 | 1012.4 |
| 20260510013403 | 12 | 144 | 0.0 | 3.2 | 0.00 | 0.00 | 0.00 | 43 | 1012.5 |
| 20260510013327 | 12 | 144 | 0.0 | 3.2 | 0.00 | 0.00 | 0.00 | 43 | 1012.5 |
| 20260510013027 | 12 | 144 | 0.0 | 3.2 | 0.00 | 0.00 | 0.00 | 43 | 1012.4 |
| 20260510012820 | 12 | 144 | 0.0 | 3.2 | 0.00 | 0.00 | 0.00 | 44 | 1012.3 |
| 20260510012619 | 12 | 144 | 0.0 | 3.2 | 0.00 | 0.00 | 0.00 | 42 | 1012.4 |
| 20260510012549 | 12 | 144 | 0.0 | 3.2 | 0.00 | 0.00 | 0.00 | 42 | 1012.4 |
| 20260510012420 | 12 | 144 | 0.0 | 4.8 | 0.00 | 0.00 | 0.00 | 43 | 1012.3 |
| 20260510012404 | 12 | 247 | 0.0 | 4.8 | 0.00 | 0.00 | 0.00 | 42 | 1012.3 |
| 20260510012330 | 12 | 140 | 0.0 | 4.8 | 0.00 | 0.00 | 0.00 | 43 | 1012.3 |
| 20260510012019 | 12 | 247 | 0.0 | 4.8 | 0.00 | 0.00 | 0.00 | 42 | 1012.2 |
| 20260510011916 | 13 | 247 | 0.0 | 8.0 | 0.00 | 0.00 | 0.00 | 41 | 1012.2 |
| 20260510011621 | 13 | 247 | 0.0 | 8.0 | 0.00 | 0.00 | 0.00 | 42 | 1012.2 |
| 20260510011549 | 13 | 247 | 0.0 | 8.0 | 0.00 | 0.00 | 0.00 | 40 | 1012.2 |
| 20260510011423 | 13 | 224 | 0.0 | 8.0 | 0.00 | 0.00 | 0.00 | 41 | 1012.1 |
| 20260510011221 | 13 | 224 | 0.0 | 8.0 | 0.00 | 0.00 | 0.00 | 40 | 1012.1 |
| 20260510011049 | 13 | 224 | 0.0 | 8.0 | 0.00 | 0.00 | 0.00 | 40 | 1012.1 |
| 20260510011016 | 13 | 226 | 0.0 | 8.0 | 0.00 | 0.00 | 0.00 | 40 | 1012.1 |
| 20260510010819 | 13 | 200 | 0.0 | 8.0 | 0.00 | 0.00 | 0.00 | 42 | 1012.0 |
| 20260510010612 | 13 | 247 | 0.0 | 8.0 | 0.00 | 0.00 | 0.00 | 40 | 1012.0 |
| 20260510010550 | 13 | 247 | 0.0 | 8.0 | 0.00 | 0.00 | 0.00 | 40 | 1012.0 |
| 20260510010511 | 13 | 258 | 0.0 | 8.0 | 0.00 | 0.00 | 0.00 | 40 | 1012.1 |
| 20260510010357 | 13 | 44 | 0.0 | 8.0 | 0.00 | 0.00 | 0.00 | 39 | 1012.0 |
| 20260510010328 | 13 | 44 | 0.0 | 6.4 | 0.00 | 0.00 | 0.00 | 40 | 1012.0 |
| 20260510010011 | 13 | 44 | 0.0 | 8.0 | 0.00 | 0.00 | 0.00 | 40 | 1011.9 |
| 20260510005818 | 13 | 92 | 0.0 | 8.0 | 0.00 | 0.00 | 0.00 | 39 | 1012.0 |
| 20260510005605 | 13 | 334 | 0.0 | 8.0 | 0.00 | 0.00 | 0.00 | 39 | 1012.0 |
| 20260510005552 | 13 | 334 | 0.0 | 8.0 | 0.00 | 0.00 | 0.00 | 39 | 1012.0 |
| 20260510005404 | 13 | 188 | 0.0 | 8.0 | 0.00 | 0.00 | 0.00 | 40 | 1011.9 |
| 20260510005357 | 13 | 100 | 0.0 | 11.3 | 0.00 | 0.00 | 0.00 | 39 | 1011.9 |
| 20260510005325 | 13 | 111 | 0.0 | 11.3 | 0.00 | 0.00 | 0.00 | 39 | 1011.8 |
| 20260510005004 | 13 | 94 | 0.0 | 11.3 | 0.00 | 0.00 | 0.00 | 40 | 1011.9 |
| 20260510004906 | 13 | 182 | 0.0 | 22.5 | 0.00 | 0.00 | 0.00 | 38 | 1011.8 |
| 20260510004604 | 13 | 244 | 0.0 | 22.5 | 0.00 | 0.00 | 0.00 | 39 | 1011.7 |
| 20260510004548 | 13 | 244 | 0.0 | 22.5 | 0.00 | 0.00 | 0.00 | 39 | 1011.7 |
| 20260510004404 | 14 | 212 | 0.0 | 22.5 | 0.00 | 0.00 | 0.00 | 39 | 1011.7 |
| 20260510004348 | 14 | 24 | 0.0 | 22.5 | 0.00 | 0.00 | 0.00 | 39 | 1011.7 |
| 20260510004323 | 14 | 221 | 0.0 | 22.5 | 0.00 | 0.00 | 0.00 | 39 | 1011.8 |
| 20260510004003 | 14 | 238 | 0.0 | 22.5 | 0.00 | 0.00 | 0.00 | 37 | 1011.7 |
| 20260510003805 | 14 | 240 | 0.0 | 9.7 | 0.00 | 0.00 | 0.00 | 36 | 1011.7 |
| 20260510003602 | 14 | 133 | 0.0 | 6.4 | 0.00 | 0.00 | 0.00 | 38 | 1011.8 |
| 20260510003547 | 14 | 212 | 0.0 | 6.4 | 0.00 | 0.00 | 0.00 | 39 | 1011.7 |
| 20260510003402 | 14 | 234 | 0.0 | 6.4 | 0.00 | 0.00 | 0.00 | 38 | 1011.6 |
| 20260510003349 | 14 | 286 | 0.0 | 6.4 | 0.00 | 0.00 | 0.00 | 38 | 1011.6 |
| 20260510003324 | 14 | 234 | 0.0 | 6.4 | 0.00 | 0.00 | 0.00 | 38 | 1011.7 |
| 20260510003008 | 14 | 264 | 0.0 | 9.7 | 0.00 | 0.00 | 0.00 | 38 | 1011.6 |
| 20260510002757 | 14 | 251 | 0.0 | 9.7 | 0.00 | 0.00 | 0.00 | 38 | 1011.5 |
| 20260510002704 | 14 | 275 | 0.0 | 9.7 | 0.00 | 0.00 | 0.00 | 36 | 1011.6 |
| 20260510002549 | 14 | 275 | 0.0 | 9.7 | 0.00 | 0.00 | 0.00 | 36 | 1011.5 |
| 20260510002353 | 14 | 155 | 0.0 | 9.7 | 0.00 | 0.00 | 0.00 | 37 | 1011.5 |
| 20260510002157 | 14 | 216 | 0.0 | 9.7 | 0.00 | 0.00 | 0.00 | 39 | 1011.5 |
| 20260510002045 | 14 | 233 | 0.0 | 9.7 | 0.00 | 0.00 | 0.00 | 38 | 1011.5 |
| 20260510001955 | 14 | 189 | 0.0 | 9.7 | 0.00 | 0.00 | 0.00 | 39 | 1011.5 |
| 20260510001802 | 14 | 188 | 0.0 | 9.7 | 0.00 | 0.00 | 0.00 | 39 | 1011.5 |
| 20260510001557 | 15 | 203 | 0.0 | 9.7 | 0.00 | 0.00 | 0.00 | 39 | 1011.4 |
| 20260510001544 | 15 | 203 | 0.0 | 9.7 | 0.00 | 0.00 | 0.00 | 39 | 1011.5 |
| 20260510001353 | 15 | 183 | 0.0 | 9.7 | 0.00 | 0.00 | 0.00 | 39 | 1011.4 |
| 20260510001154 | 15 | 234 | 0.0 | 9.7 | 0.00 | 0.00 | 0.00 | 37 | 1011.4 |
| 20260510001058 | 15 | 244 | 0.0 | 9.7 | 0.00 | 0.00 | 0.00 | 36 | 1011.4 |
| 20260510001045 | 15 | 251 | 0.0 | 9.7 | 0.00 | 0.00 | 0.00 | 35 | 1011.4 |
| 20260510000752 | 15 | 258 | 0.0 | 9.7 | 0.00 | 0.00 | 0.00 | 36 | 1011.4 |
| 20260510000601 | 15 | 178 | 0.0 | 9.7 | 0.00 | 0.00 | 0.00 | 37 | 1011.5 |
| 20260510000546 | 15 | 176 | 0.0 | 9.7 | 0.00 | 0.00 | 0.00 | 37 | 1011.4 |
| 20260510000356 | 15 | 47 | 0.0 | 9.7 | 0.00 | 0.00 | 0.00 | 35 | 1011.2 |
| 20260510000148 | 15 | 224 | 0.0 | 11.3 | 0.00 | 0.00 | 0.00 | 37 | 1011.4 |
| 20260510000045 | 15 | 250 | 0.0 | 11.3 | 0.00 | 0.00 | 0.00 | 37 | 1011.2 |
| 20260509235948 | 15 | 234 | 0.0 | 11.3 | 0.00 | 0.00 | 0.00 | 37 | 1011.2 |
| 20260509235748 | 15 | 248 | 0.0 | 11.3 | 0.00 | 0.00 | 0.00 | 37 | 1011.2 |
| 20260509235546 | 15 | 223 | 0.0 | 11.3 | 0.00 | 0.00 | 0.00 | 38 | 1011.1 |
| 20260509235452 | 15 | 224 | 0.0 | 11.3 | 0.00 | 0.00 | 0.00 | 37 | 1011.2 |
| 20260509235146 | 15 | 251 | 0.0 | 11.3 | 0.00 | 0.00 | 0.00 | 38 | 1011.2 |
| 20260509235043 | 15 | 254 | 0.0 | 11.3 | 0.00 | 0.00 | 0.00 | 37 | 1011.2 |
| 20260509234949 | 15 | 233 | 0.0 | 8.0 | 0.00 | 0.00 | 0.00 | 35 | 1011.1 |
| 20260509234745 | 15 | 48 | 0.0 | 8.0 | 0.00 | 0.00 | 0.00 | 35 | 1011.2 |
| 20260509234654 | 15 | 178 | 0.0 | 8.0 | 0.00 | 0.00 | 0.00 | 35 | 1011.1 |
| 20260509234541 | 15 | 178 | 0.0 | 8.0 | 0.00 | 0.00 | 0.00 | 35 | 1011.1 |
| 20260509234345 | 15 | 178 | 0.0 | 8.0 | 0.00 | 0.00 | 0.00 | 38 | 1011.1 |
| 20260509234141 | 15 | 178 | 0.0 | 8.0 | 0.00 | 0.00 | 0.00 | 35 | 1011.0 |
| 20260509234039 | 15 | 190 | 0.0 | 11.3 | 0.00 | 0.00 | 0.00 | 36 | 1011.0 |
| 20260509233937 | 15 | 23 | 0.0 | 11.3 | 0.00 | 0.00 | 0.00 | 36 | 1010.9 |
| 20260509233736 | 15 | 165 | 0.0 | 11.3 | 0.00 | 0.00 | 0.00 | 35 | 1011.0 |
| 20260509233536 | 15 | 164 | 0.0 | 11.3 | 0.00 | 0.00 | 0.00 | 35 | 1010.9 |
| 20260509233337 | 15 | 214 | 0.0 | 11.3 | 0.00 | 0.00 | 0.00 | 36 | 1010.9 |
| 20260509233135 | 15 | 68 | 0.0 | 11.3 | 0.00 | 0.00 | 0.00 | 35 | 1010.9 |
| 20260509233039 | 15 | 272 | 0.0 | 11.3 | 0.00 | 0.00 | 0.00 | 36 | 1010.9 |
| 20260509233033 | 15 | 0 | 0.0 | 8.0 | 0.00 | 0.00 | 0.00 | 36 | 1010.9 |
| 20260509232734 | 16 | 87 | 0.0 | 8.0 | 0.00 | 0.00 | 0.00 | 36 | 1010.9 |
| 20260509232531 | 16 | 182 | 0.0 | 8.0 | 0.00 | 0.00 | 0.00 | 36 | 1010.7 |
| 20260509232330 | 16 | 257 | 0.0 | 8.0 | 0.00 | 0.00 | 0.00 | 36 | 1010.8 |
| 20260509232130 | 16 | 255 | 0.0 | 8.0 | 0.00 | 0.00 | 0.00 | 40 | 1010.8 |
| 20260509232036 | 16 | 255 | 0.0 | 8.0 | 0.00 | 0.00 | 0.00 | 39 | 1010.9 |
| 20260509231930 | 16 | 255 | 0.0 | 8.0 | 0.00 | 0.00 | 0.00 | 37 | 1010.9 |
| 20260509231729 | 16 | 258 | 0.0 | 9.7 | 0.00 | 0.00 | 0.00 | 36 | 1010.8 |
| 20260509231536 | 16 | 117 | 0.0 | 9.7 | 0.00 | 0.00 | 0.00 | 38 | 1010.7 |
| 20260509231532 | 16 | 107 | 0.0 | 9.7 | 0.00 | 0.00 | 0.00 | 38 | 1010.7 |
| 20260509231428 | 16 | 45 | 0.0 | 16.1 | 0.00 | 0.00 | 0.00 | 38 | 1010.8 |
| 20260509231129 | 16 | 171 | 0.0 | 16.1 | 0.00 | 0.00 | 0.00 | 37 | 1010.7 |
| 20260509231033 | 16 | 141 | 0.0 | 16.1 | 0.00 | 0.00 | 0.00 | 37 | 1010.6 |
| 20260509230931 | 16 | 8 | 0.0 | 16.1 | 0.00 | 0.00 | 0.00 | 34 | 1010.7 |
| 20260509230917 | 16 | 45 | 0.0 | 16.1 | 0.00 | 0.00 | 0.00 | 34 | 1010.7 |
| 20260509230831 | 16 | 228 | 0.0 | 16.1 | 0.00 | 0.00 | 0.00 | 35 | 1010.7 |
| 20260509230532 | 16 | 228 | 0.0 | 16.1 | 0.00 | 0.00 | 0.00 | 35 | 1010.7 |
| 20260509230332 | 16 | 228 | 0.0 | 8.0 | 0.00 | 0.00 | 0.00 | 38 | 1010.5 |
| 20260509230327 | 16 | 245 | 0.0 | 11.3 | 0.00 | 0.00 | 0.00 | 35 | 1010.7 |
| 20260509230257 | 16 | 228 | 0.0 | 8.0 | 0.00 | 0.00 | 0.00 | 38 | 1010.5 |
| 20260509225921 | 16 | 221 | 0.0 | 8.0 | 0.00 | 0.00 | 0.00 | 37 | 1010.5 |
| 20260509225721 | 16 | 213 | 0.0 | 9.7 | 0.00 | 0.00 | 0.00 | 36 | 1010.5 |
| 20260509225529 | 16 | 227 | 0.0 | 9.7 | 0.00 | 0.00 | 0.00 | 36 | 1010.6 |
| 20260509225521 | 16 | 223 | 0.0 | 9.7 | 0.00 | 0.00 | 0.00 | 36 | 1010.6 |
| 20260509225355 | 16 | 340 | 0.0 | 9.7 | 0.00 | 0.00 | 0.00 | 35 | 1010.5 |
| 20260509225329 | 16 | 340 | 0.0 | 9.7 | 0.00 | 0.00 | 0.00 | 34 | 1010.4 |
| 20260509225323 | 16 | 0 | 0.0 | 9.7 | 0.00 | 0.00 | 0.00 | 34 | 1010.5 |
| 20260509224915 | 16 | 6 | 0.0 | 9.7 | 0.00 | 0.00 | 0.00 | 35 | 1010.5 |
| 20260509224715 | 16 | 3 | 0.0 | 8.0 | 0.00 | 0.00 | 0.00 | 36 | 1010.4 |
| 20260509224529 | 16 | 290 | 0.0 | 11.3 | 0.00 | 0.00 | 0.00 | 36 | 1010.5 |
| 20260509224513 | 16 | 247 | 0.0 | 11.3 | 0.00 | 0.00 | 0.00 | 36 | 1010.5 |
| 20260509224335 | 16 | 166 | 0.0 | 11.3 | 0.00 | 0.00 | 0.00 | 39 | 1010.2 |
| 20260509224326 | 16 | 176 | 0.0 | 11.3 | 0.00 | 0.00 | 0.00 | 35 | 1010.3 |
| 20260509224255 | 16 | 87 | 0.0 | 11.3 | 0.00 | 0.00 | 0.00 | 36 | 1010.3 |
| 20260509223914 | 16 | 8 | 0.0 | 14.5 | 0.00 | 0.00 | 0.00 | 37 | 1010.3 |
| 20260509223712 | 16 | 1 | 0.0 | 14.5 | 0.00 | 0.00 | 0.00 | 34 | 1010.3 |
| 20260509223608 | 16 | 6 | 0.0 | 14.5 | 0.00 | 0.00 | 0.00 | 35 | 1010.3 |
| 20260509223526 | 16 | 344 | 0.0 | 14.5 | 0.00 | 0.00 | 0.00 | 35 | 1010.3 |
| 20260509223327 | 16 | 37 | 0.0 | 14.5 | 0.00 | 0.00 | 0.00 | 34 | 1010.3 |
| 20260509223321 | 16 | 341 | 0.0 | 14.5 | 0.00 | 0.00 | 0.00 | 33 | 1010.4 |
| 20260509223251 | 16 | 75 | 0.0 | 14.5 | 0.00 | 0.00 | 0.00 | 34 | 1010.2 |
| 20260509222909 | 16 | 293 | 0.0 | 11.3 | 0.00 | 0.00 | 0.00 | 35 | 1010.3 |
| 20260509222711 | 16 | 254 | 0.0 | 16.1 | 0.00 | 0.00 | 0.00 | 38 | 1010.2 |
| 20260509222510 | 16 | 248 | 0.0 | 16.1 | 0.00 | 0.00 | 0.00 | 37 | 1010.2 |
| 20260509222309 | 16 | 197 | 0.0 | 16.1 | 0.00 | 0.00 | 0.00 | 35 | 1010.2 |
| 20260509222205 | 16 | 250 | 0.0 | 16.1 | 0.00 | 0.00 | 0.00 | 36 | 1010.2 |
| 20260509222025 | 16 | 264 | 0.0 | 16.1 | 0.00 | 0.00 | 0.00 | 35 | 1010.1 |
| 20260509221908 | 16 | 255 | 0.0 | 16.1 | 0.00 | 0.00 | 0.00 | 36 | 1010.2 |
| 20260509221825 | 16 | 306 | 0.0 | 11.3 | 0.00 | 0.00 | 0.00 | 35 | 1010.1 |
| 20260509221804 | 16 | 141 | 0.0 | 16.1 | 0.00 | 0.00 | 0.00 | 35 | 1010.1 |
| 20260509221505 | 16 | 306 | 0.0 | 11.3 | 0.00 | 0.00 | 0.00 | 35 | 1010.1 |
| 20260509221301 | 17 | 162 | 0.0 | 11.3 | 0.00 | 0.00 | 0.00 | 37 | 1010.1 |
| 20260509221101 | 17 | 182 | 0.0 | 11.3 | 0.00 | 0.00 | 0.00 | 38 | 1010.0 |
| 20260509221004 | 17 | 289 | 0.0 | 11.3 | 0.00 | 0.00 | 0.00 | 37 | 1010.1 |
| 20260509220901 | 16 | 251 | 0.0 | 11.3 | 0.00 | 0.00 | 0.00 | 38 | 1010.1 |
| 20260509220803 | 16 | 217 | 0.0 | 11.3 | 0.00 | 0.00 | 0.00 | 39 | 1009.9 |
| 20260509220758 | 16 | 217 | 0.0 | 11.3 | 0.00 | 0.00 | 0.00 | 39 | 1009.9 |
| 20260509220743 | 16 | 41 | 0.0 | 11.3 | 0.00 | 0.00 | 0.00 | 38 | 1010.0 |
| 20260509220250 | 16 | 11 | 0.0 | 11.3 | 0.00 | 0.00 | 0.00 | 35 | 1009.9 |
| 20260509220050 | 16 | 0 | 0.0 | 11.3 | 0.00 | 0.00 | 0.00 | 34 | 1010.0 |
| 20260509220005 | 16 | 113 | 0.0 | 11.3 | 0.00 | 0.00 | 0.00 | 36 | 1009.9 |
| 20260509215850 | 17 | 305 | 0.0 | 8.0 | 0.00 | 0.00 | 0.00 | 36 | 1010.0 |
| 20260509215753 | 16 | 257 | 0.0 | 14.5 | 0.00 | 0.00 | 0.00 | 39 | 1010.1 |
| 20260509215739 | 16 | 199 | 0.0 | 8.0 | 0.00 | 0.00 | 0.00 | 39 | 1010.1 |
| 20260509215452 | 16 | 257 | 0.0 | 19.3 | 0.00 | 0.00 | 0.00 | 39 | 1010.1 |
| 20260509215252 | 16 | 314 | 0.0 | 19.3 | 0.00 | 0.00 | 0.00 | 36 | 1010.1 |
| 20260509215053 | 16 | 148 | 0.0 | 19.3 | 0.00 | 0.00 | 0.00 | 36 | 1010.2 |
| 20260509214959 | 16 | 251 | 0.0 | 19.3 | 0.00 | 0.00 | 0.00 | 37 | 1010.1 |
| 20260509214851 | 16 | 261 | 0.0 | 19.3 | 0.00 | 0.00 | 0.00 | 36 | 1010.1 |
| 20260509214654 | 16 | 56 | 0.0 | 19.3 | 0.00 | 0.00 | 0.00 | 34 | 1010.1 |
| 20260509214458 | 16 | 166 | 0.0 | 19.3 | 0.00 | 0.00 | 0.00 | 37 | 1010.0 |
| 20260509214452 | 16 | 213 | 0.0 | 14.5 | 0.00 | 0.00 | 0.00 | 37 | 1010.0 |
| 20260509214252 | 16 | 264 | 0.0 | 17.7 | 0.00 | 0.00 | 0.00 | 39 | 1010.0 |
| 20260509214152 | 16 | 59 | 0.0 | 17.7 | 0.00 | 0.00 | 0.00 | 34 | 1010.1 |
| 20260509213951 | 16 | 106 | 0.0 | 17.7 | 0.00 | 0.00 | 0.00 | 38 | 1010.1 |
| 20260509213851 | 16 | 147 | 0.0 | 17.7 | 0.00 | 0.00 | 0.00 | 36 | 1009.9 |
| 20260509213754 | 16 | 217 | 0.0 | 17.7 | 0.00 | 0.00 | 0.00 | 39 | 1009.9 |
| 20260509213739 | 16 | 186 | 0.0 | 17.7 | 0.00 | 0.00 | 0.00 | 35 | 1010.0 |
| 20260509213452 | 16 | 217 | 0.0 | 17.7 | 0.00 | 0.00 | 0.00 | 38 | 1009.9 |
| 20260509213251 | 16 | 320 | 0.0 | 11.3 | 0.00 | 0.00 | 0.00 | 36 | 1009.9 |
| 20260509213052 | 16 | 257 | 0.0 | 11.3 | 0.00 | 0.00 | 0.00 | 34 | 1009.9 |
| 20260509212952 | 16 | 44 | 0.0 | 11.3 | 0.00 | 0.00 | 0.00 | 36 | 1009.8 |
| 20260509212852 | 16 | 103 | 0.0 | 11.3 | 0.00 | 0.00 | 0.00 | 34 | 1009.9 |
| 20260509212747 | 16 | 13 | 0.0 | 11.3 | 0.00 | 0.00 | 0.00 | 35 | 1009.8 |
| 20260509212733 | 16 | 252 | 0.0 | 11.3 | 0.00 | 0.00 | 0.00 | 36 | 1010.0 |
| 20260509212253 | 16 | 76 | 0.0 | 11.3 | 0.00 | 0.00 | 0.00 | 37 | 1009.8 |
| 20260509212051 | 16 | 106 | 0.0 | 11.3 | 0.00 | 0.00 | 0.00 | 34 | 1009.8 |
| 20260509211955 | 16 | 31 | 0.0 | 11.3 | 0.00 | 0.00 | 0.00 | 34 | 1009.8 |
| 20260509211854 | 16 | 41 | 0.0 | 11.3 | 0.00 | 0.00 | 0.00 | 36 | 1009.8 |
| 20260509211800 | 16 | 42 | 0.0 | 11.3 | 0.00 | 0.00 | 0.00 | 39 | 1009.8 |
| 20260509211742 | 16 | 17 | 0.0 | 11.3 | 0.00 | 0.00 | 0.00 | 38 | 1009.8 |
| 20260509211706 | 16 | 42 | 0.0 | 11.3 | 0.00 | 0.00 | 0.00 | 39 | 1009.8 |
| 20260509211255 | 16 | 279 | 0.0 | 11.3 | 0.00 | 0.00 | 0.00 | 38 | 1009.9 |
| 20260509211054 | 16 | 47 | 0.0 | 11.3 | 0.00 | 0.00 | 0.00 | 35 | 1009.7 |
| 20260509210954 | 16 | 358 | 0.0 | 11.3 | 0.00 | 0.00 | 0.00 | 36 | 1009.8 |
| 20260509210852 | 16 | 209 | 0.0 | 11.3 | 0.00 | 0.00 | 0.00 | 37 | 1009.8 |
| 20260509210653 | 16 | 49 | 0.0 | 9.7 | 0.00 | 0.00 | 0.00 | 37 | 1009.8 |
| 20260509210455 | 16 | 348 | 0.0 | 9.7 | 0.00 | 0.00 | 0.00 | 37 | 1009.7 |
| 20260509210253 | 17 | 234 | 0.0 | 9.7 | 0.00 | 0.00 | 0.00 | 39 | 1009.7 |
| 20260509210053 | 16 | 39 | 0.0 | 9.7 | 0.00 | 0.00 | 0.00 | 40 | 1009.6 |
| 20260509205953 | 16 | 118 | 0.0 | 9.7 | 0.00 | 0.00 | 0.00 | 38 | 1009.7 |
| 20260509205853 | 16 | 59 | 0.0 | 9.7 | 0.00 | 0.00 | 0.00 | 38 | 1009.7 |
| 20260509205756 | 16 | 212 | 0.0 | 9.7 | 0.00 | 0.00 | 0.00 | 41 | 1009.7 |
| 20260509205740 | 16 | 4 | 0.0 | 9.7 | 0.00 | 0.00 | 0.00 | 37 | 1009.7 |
| 20260509205253 | 17 | 34 | 0.0 | 9.7 | 0.00 | 0.00 | 0.00 | 41 | 1009.7 |
| 20260509205053 | 16 | 261 | 0.0 | 9.7 | 0.00 | 0.00 | 0.00 | 40 | 1009.8 |
| 20260509204953 | 16 | 272 | 0.0 | 9.7 | 0.00 | 0.00 | 0.00 | 37 | 1009.6 |
| 20260509204853 | 16 | 49 | 0.0 | 9.7 | 0.00 | 0.00 | 0.00 | 41 | 1009.6 |
| 20260509204802 | 17 | 279 | 0.0 | 8.0 | 0.00 | 0.00 | 0.00 | 35 | 1009.7 |
| 20260509204745 | 16 | 210 | 0.0 | 9.7 | 0.00 | 0.00 | 0.00 | 37 | 1009.7 |
| 20260509204708 | 17 | 279 | 0.0 | 8.0 | 0.00 | 0.00 | 0.00 | 35 | 1009.7 |
| 20260509204254 | 16 | 56 | 0.0 | 8.0 | 0.00 | 0.00 | 0.00 | 40 | 1009.8 |
| 20260509204032 | 16 | 56 | 0.0 | 8.0 | 0.00 | 0.00 | 0.00 | 40 | 1009.6 |
| 20260509203955 | 16 | 56 | 0.0 | 8.0 | 0.00 | 0.00 | 0.00 | 40 | 1009.6 |
| 20260509203924 | 16 | 251 | 0.0 | 11.3 | 0.00 | 0.00 | 0.00 | 40 | 1009.7 |
| 20260509203745 | 16 | 41 | 0.0 | 14.5 | 0.00 | 0.00 | 0.00 | 40 | 1009.6 |
| 20260509203727 | 16 | 240 | 0.0 | 14.5 | 0.00 | 0.00 | 0.00 | 41 | 1009.6 |
| 20260509203425 | 16 | 41 | 0.0 | 14.5 | 0.00 | 0.00 | 0.00 | 40 | 1009.7 |
| 20260509203226 | 16 | 20 | 0.0 | 14.5 | 0.00 | 0.00 | 0.00 | 40 | 1009.6 |
| 20260509203020 | 16 | 10 | 0.0 | 14.5 | 0.00 | 0.00 | 0.00 | 39 | 1009.6 |
| 20260509202952 | 16 | 7 | 0.0 | 14.5 | 0.00 | 0.00 | 0.00 | 36 | 1009.6 |
| 20260509202815 | 16 | 38 | 0.0 | 14.5 | 0.00 | 0.00 | 0.00 | 39 | 1009.6 |
| 20260509202747 | 16 | 336 | 0.0 | 11.3 | 0.00 | 0.00 | 0.00 | 40 | 1009.6 |
| 20260509202725 | 16 | 28 | 0.0 | 11.3 | 0.00 | 0.00 | 0.00 | 38 | 1009.6 |
| 20260509202415 | 16 | 347 | 0.0 | 11.3 | 0.00 | 0.00 | 0.00 | 40 | 1009.6 |
| 20260509202214 | 16 | 0 | 0.0 | 9.7 | 0.00 | 0.00 | 0.00 | 38 | 1009.5 |
| 20260509202014 | 16 | 68 | 0.0 | 11.3 | 0.00 | 0.00 | 0.00 | 39 | 1009.6 |
| 20260509201952 | 16 | 18 | 0.0 | 11.3 | 0.00 | 0.00 | 0.00 | 39 | 1009.6 |
| 20260509201911 | 16 | 100 | 0.0 | 11.3 | 0.00 | 0.00 | 0.00 | 40 | 1009.6 |
| 20260509201750 | 16 | 344 | 0.0 | 11.3 | 0.00 | 0.00 | 0.00 | 43 | 1009.5 |
| 20260509201727 | 16 | 28 | 0.0 | 11.3 | 0.00 | 0.00 | 0.00 | 42 | 1009.6 |
| 20260509201412 | 16 | 235 | 0.0 | 11.3 | 0.00 | 0.00 | 0.00 | 38 | 1009.6 |
| 20260509201213 | 16 | 1 | 0.0 | 11.3 | 0.00 | 0.00 | 0.00 | 39 | 1009.4 |
| 20260509201011 | 16 | 37 | 0.0 | 11.3 | 0.00 | 0.00 | 0.00 | 38 | 1009.5 |
| 20260509200951 | 16 | 131 | 0.0 | 11.3 | 0.00 | 0.00 | 0.00 | 38 | 1009.5 |
| 20260509200813 | 16 | 250 | 0.0 | 14.5 | 0.00 | 0.00 | 0.00 | 40 | 1009.5 |
| 20260509200747 | 16 | 6 | 0.0 | 14.5 | 0.00 | 0.00 | 0.00 | 40 | 1009.6 |
| 20260509200726 | 16 | 42 | 0.0 | 14.5 | 0.00 | 0.00 | 0.00 | 37 | 1009.5 |
| 20260509200411 | 16 | 307 | 0.0 | 14.5 | 0.00 | 0.00 | 0.00 | 37 | 1009.5 |
| 20260509200308 | 16 | 13 | 0.0 | 14.5 | 0.00 | 0.00 | 0.00 | 36 | 1009.5 |
| 20260509200006 | 16 | 0 | 0.0 | 14.5 | 0.00 | 0.00 | 0.00 | 39 | 1009.5 |
| 20260509195951 | 16 | 14 | 0.0 | 14.5 | 0.00 | 0.00 | 0.00 | 41 | 1009.5 |
| 20260509195806 | 16 | 234 | 0.0 | 11.3 | 0.00 | 0.00 | 0.00 | 39 | 1009.3 |
| 20260509195747 | 16 | 248 | 0.0 | 11.3 | 0.00 | 0.00 | 0.00 | 38 | 1009.4 |
| 20260509195725 | 16 | 251 | 0.0 | 11.3 | 0.00 | 0.00 | 0.00 | 37 | 1009.4 |
| 20260509195407 | 16 | 271 | 0.0 | 11.3 | 0.00 | 0.00 | 0.00 | 38 | 1009.3 |
| 20260509195206 | 16 | 199 | 0.0 | 16.1 | 0.00 | 0.00 | 0.00 | 40 | 1009.4 |
| 20260509195005 | 16 | 255 | 0.0 | 16.1 | 0.00 | 0.00 | 0.00 | 39 | 1009.3 |
| 20260509194953 | 16 | 255 | 0.0 | 16.1 | 0.00 | 0.00 | 0.00 | 39 | 1009.3 |
| 20260509194806 | 16 | 340 | 0.0 | 16.1 | 0.00 | 0.00 | 0.00 | 37 | 1009.4 |
| 20260509194606 | 16 | 16 | 0.0 | 16.1 | 0.00 | 0.00 | 0.00 | 40 | 1009.3 |
| 20260509194451 | 16 | 25 | 0.0 | 16.1 | 0.00 | 0.00 | 0.00 | 41 | 1009.3 |
| 20260509194354 | 16 | 155 | 0.0 | 16.1 | 0.00 | 0.00 | 0.00 | 40 | 1009.3 |
| 20260509194254 | 16 | 145 | 0.0 | 20.9 | 0.00 | 0.00 | 0.00 | 38 | 1009.2 |
| 20260509193951 | 16 | 166 | 0.0 | 20.9 | 0.00 | 0.00 | 0.00 | 38 | 1009.3 |
| 20260509193753 | 16 | 96 | 0.0 | 20.9 | 0.00 | 0.00 | 0.00 | 39 | 1009.4 |
| 20260509193745 | 15 | 185 | 0.0 | 20.9 | 0.00 | 0.00 | 0.00 | 37 | 1009.2 |
| 20260509193721 | 16 | 226 | 0.0 | 20.9 | 0.00 | 0.00 | 0.00 | 37 | 1009.3 |
| 20260509193355 | 16 | 262 | 0.0 | 20.9 | 0.00 | 0.00 | 0.00 | 37 | 1009.2 |
| 20260509193152 | 16 | 313 | 0.0 | 16.1 | 0.00 | 0.00 | 0.00 | 41 | 1009.3 |
| 20260509192954 | 16 | 202 | 0.0 | 14.5 | 0.00 | 0.00 | 0.00 | 42 | 1009.2 |
| 20260509192827 | 16 | 254 | 0.0 | 14.5 | 0.00 | 0.00 | 0.00 | 44 | 1009.1 |
| 20260509192759 | 16 | 18 | 0.0 | 14.5 | 0.00 | 0.00 | 0.00 | 44 | 1009.1 |
| 20260509192753 | 16 | 166 | 0.0 | 9.7 | 0.00 | 0.00 | 0.00 | 41 | 1009.1 |
| 20260509192353 | 16 | 41 | 0.0 | 14.5 | 0.00 | 0.00 | 0.00 | 42 | 1009.1 |
| 20260509192153 | 16 | 58 | 0.0 | 14.5 | 0.00 | 0.00 | 0.00 | 43 | 1009.2 |
| 20260509191954 | 16 | 30 | 0.0 | 14.5 | 0.00 | 0.00 | 0.00 | 41 | 1009.2 |
| 20260509191755 | 16 | 158 | 0.0 | 14.5 | 0.00 | 0.00 | 0.00 | 41 | 1009.2 |
| 20260509191747 | 16 | 282 | 0.0 | 14.5 | 0.00 | 0.00 | 0.00 | 42 | 1009.3 |
| 20260509191724 | 16 | 221 | 0.0 | 14.5 | 0.00 | 0.00 | 0.00 | 38 | 1009.2 |
| 20260509191355 | 16 | 17 | 0.0 | 14.5 | 0.00 | 0.00 | 0.00 | 40 | 1009.2 |
| 20260509191154 | 16 | 17 | 0.0 | 14.5 | 0.00 | 0.00 | 0.00 | 40 | 1009.1 |
| 20260509191056 | 16 | 344 | 0.0 | 14.5 | 0.00 | 0.00 | 0.00 | 38 | 1009.2 |
| 20260509190956 | 16 | 344 | 0.0 | 14.5 | 0.00 | 0.00 | 0.00 | 38 | 1009.2 |
| 20260509190753 | 16 | 32 | 0.0 | 11.3 | 0.00 | 0.00 | 0.00 | 44 | 1009.2 |
| 20260509190554 | 16 | 282 | 0.0 | 11.3 | 0.00 | 0.00 | 0.00 | 40 | 1009.2 |
| 20260509190435 | 16 | 165 | 0.0 | 11.3 | 0.00 | 0.00 | 0.00 | 39 | 1009.1 |
| 20260509190353 | 16 | 199 | 0.0 | 11.3 | 0.00 | 0.00 | 0.00 | 39 | 1009.1 |
| 20260509190254 | 16 | 238 | 0.0 | 11.3 | 0.00 | 0.00 | 0.00 | 38 | 1009.2 |
| 20260509185953 | 16 | 157 | 0.0 | 11.3 | 0.00 | 0.00 | 0.00 | 40 | 1009.0 |
| 20260509185934 | 16 | 351 | 0.0 | 11.3 | 0.00 | 0.00 | 0.00 | 40 | 1009.0 |
| 20260509185752 | 16 | 25 | 0.0 | 11.3 | 0.00 | 0.00 | 0.00 | 42 | 1009.1 |
| 20260509185732 | 16 | 73 | 0.0 | 11.3 | 0.00 | 0.00 | 0.00 | 39 | 1008.9 |
| 20260509185711 | 16 | 34 | 0.0 | 11.3 | 0.00 | 0.00 | 0.00 | 41 | 1009.0 |
| 20260509185355 | 16 | 73 | 0.0 | 11.3 | 0.00 | 0.00 | 0.00 | 39 | 1008.9 |
| 20260509185153 | 16 | 123 | 0.0 | 11.3 | 0.00 | 0.00 | 0.00 | 39 | 1009.0 |
| 20260509184954 | 16 | 38 | 0.0 | 11.3 | 0.00 | 0.00 | 0.00 | 40 | 1009.1 |
| 20260509184933 | 16 | 317 | 0.0 | 11.3 | 0.00 | 0.00 | 0.00 | 40 | 1009.0 |
| 20260509184806 | 16 | 199 | 0.0 | 9.7 | 0.00 | 0.00 | 0.00 | 38 | 1009.0 |
| 20260509184753 | 16 | 289 | 0.0 | 11.3 | 0.00 | 0.00 | 0.00 | 41 | 1008.9 |
| 20260509184725 | 16 | 243 | 0.0 | 11.3 | 0.00 | 0.00 | 0.00 | 43 | 1008.9 |
| 20260509184353 | 16 | 243 | 0.0 | 11.3 | 0.00 | 0.00 | 0.00 | 41 | 1008.9 |
| 20260509184154 | 16 | 292 | 0.0 | 11.3 | 0.00 | 0.00 | 0.00 | 38 | 1008.9 |
| 20260509183953 | 16 | 11 | 0.0 | 11.3 | 0.00 | 0.00 | 0.00 | 43 | 1008.7 |
| 20260509183931 | 16 | 10 | 0.0 | 11.3 | 0.00 | 0.00 | 0.00 | 43 | 1008.7 |
| 20260509183754 | 16 | 300 | 0.0 | 11.3 | 0.00 | 0.00 | 0.00 | 46 | 1008.8 |
| 20260509183731 | 15 | 109 | 0.0 | 11.3 | 0.00 | 0.00 | 0.00 | 44 | 1008.7 |
| 20260509183711 | 15 | 63 | 0.0 | 11.3 | 0.00 | 0.00 | 0.00 | 42 | 1008.7 |
| 20260509183354 | 15 | 4 | 0.0 | 11.3 | 0.00 | 0.00 | 0.00 | 44 | 1008.7 |
| 20260509183153 | 16 | 190 | 0.0 | 11.3 | 0.00 | 0.00 | 0.00 | 39 | 1008.9 |
| 20260509183052 | 16 | 214 | 0.0 | 9.7 | 0.00 | 0.00 | 0.00 | 43 | 1008.7 |
| 20260509182931 | 16 | 257 | 0.0 | 9.7 | 0.00 | 0.00 | 0.00 | 44 | 1008.7 |
| 20260509182753 | 16 | 248 | 0.0 | 6.4 | 0.00 | 0.00 | 0.00 | 42 | 1008.7 |
| 20260509182552 | 16 | 138 | 0.0 | 6.4 | 0.00 | 0.00 | 0.00 | 45 | 1008.8 |
| 20260509182431 | 16 | 196 | 0.0 | 16.1 | 0.00 | 0.00 | 0.00 | 43 | 1008.7 |
| 20260509182353 | 16 | 199 | 0.0 | 16.1 | 0.00 | 0.00 | 0.00 | 43 | 1008.7 |
| 20260509182152 | 16 | 240 | 0.0 | 16.1 | 0.00 | 0.00 | 0.00 | 43 | 1008.7 |
| 20260509182054 | 16 | 32 | 0.0 | 16.1 | 0.00 | 0.00 | 0.00 | 45 | 1008.7 |
| 20260509181931 | 16 | 30 | 0.0 | 16.1 | 0.00 | 0.00 | 0.00 | 45 | 1008.7 |
| 20260509181754 | 15 | 4 | 0.0 | 16.1 | 0.00 | 0.00 | 0.00 | 43 | 1008.7 |
| 20260509181554 | 15 | 4 | 0.0 | 16.1 | 0.00 | 0.00 | 0.00 | 43 | 1008.7 |
| 20260509181432 | 15 | 16 | 0.0 | 14.5 | 0.00 | 0.00 | 0.00 | 43 | 1008.7 |
| 20260509181353 | 15 | 37 | 0.0 | 14.5 | 0.00 | 0.00 | 0.00 | 42 | 1008.7 |
| 20260509181154 | 15 | 0 | 0.0 | 14.5 | 0.00 | 0.00 | 0.00 | 43 | 1008.7 |
| 20260509180958 | 16 | 244 | 0.0 | 14.5 | 0.00 | 0.00 | 0.00 | 42 | 1008.7 |
| 20260509180931 | 16 | 244 | 0.0 | 14.5 | 0.00 | 0.00 | 0.00 | 42 | 1008.5 |
| 20260509180753 | 16 | 214 | 0.0 | 14.5 | 0.00 | 0.00 | 0.00 | 42 | 1008.6 |
| 20260509180552 | 16 | 0 | 0.0 | 8.0 | 0.00 | 0.00 | 0.00 | 45 | 1008.5 |
| 20260509180453 | 16 | 276 | 0.0 | 11.3 | 0.00 | 0.00 | 0.00 | 44 | 1008.5 |
| 20260509180411 | 16 | 276 | 0.0 | 11.3 | 0.00 | 0.00 | 0.00 | 47 | 1008.5 |
| 20260509180151 | 16 | 0 | 0.0 | 11.3 | 0.00 | 0.00 | 0.00 | 46 | 1008.6 |
| 20260509175951 | 15 | 344 | 0.0 | 11.3 | 0.00 | 0.00 | 0.00 | 46 | 1008.4 |
| 20260509175913 | 15 | 44 | 0.0 | 11.3 | 0.00 | 0.00 | 0.00 | 46 | 1008.6 |
| 20260509175753 | 15 | 245 | 0.0 | 11.3 | 0.00 | 0.00 | 0.00 | 43 | 1008.5 |
| 20260509175551 | 15 | 348 | 0.0 | 11.3 | 0.00 | 0.00 | 0.00 | 44 | 1008.6 |
| 20260509175411 | 15 | 0 | 0.0 | 14.5 | 0.00 | 0.00 | 0.00 | 48 | 1008.4 |
| 20260509175352 | 15 | 30 | 0.0 | 14.5 | 0.00 | 0.00 | 0.00 | 48 | 1008.4 |
| 20260509175148 | 15 | 182 | 0.0 | 14.5 | 0.00 | 0.00 | 0.00 | 45 | 1008.5 |
| 20260509174949 | 15 | 259 | 0.0 | 14.5 | 0.00 | 0.00 | 0.00 | 44 | 1008.5 |
| 20260509174913 | 15 | 195 | 0.0 | 14.5 | 0.00 | 0.00 | 0.00 | 47 | 1008.5 |
| 20260509174850 | 15 | 302 | 0.0 | 14.5 | 0.00 | 0.00 | 0.00 | 44 | 1008.5 |
| 20260509174548 | 15 | 237 | 0.0 | 14.5 | 0.00 | 0.00 | 0.00 | 41 | 1008.5 |
| 20260509174406 | 15 | 219 | 0.0 | 14.5 | 0.00 | 0.00 | 0.00 | 43 | 1008.4 |
| 20260509174344 | 15 | 305 | 0.0 | 14.5 | 0.00 | 0.00 | 0.00 | 43 | 1008.4 |